GW2849 Weather Reports


Display with metric or nautical units.
time (UTC)temp
F
wind
direction
speed
MPH
gust
MPH
rain 1hr
in
rain 24hr
in
rain mn
in
humidity
%
barometer
mb
20260906183059 82 86 2.0 11.0 0.00 0.31 0.00 51 1015.7
20260906182859 82 332 3.0 8.0 0.00 0.31 0.00 52 1015.8
20260906182702 82 329 3.0 8.0 0.00 0.31 0.00 53 1015.8
20260906182559 82 338 2.0 11.0 0.00 0.31 0.00 55 1015.8
20260906182459 81 17 3.0 11.0 0.00 0.31 0.00 54 1015.8
20260906181859 81 345 1.0 12.0 0.00 0.31 0.00 53 1016.0
20260906181759 81 347 4.0 12.0 0.00 0.31 0.00 52 1015.9
20260906181659 81 355 4.0 14.0 0.00 0.31 0.00 53 1015.9
20260906181559 81 347 8.0 14.0 0.00 0.31 0.00 51 1015.9
20260906181459 81 19 3.0 14.0 0.00 0.31 0.00 51 1015.9
20260906181259 81 169 2.0 14.0 0.00 0.31 0.00 53 1015.9
20260906181200 81 5 3.0 14.0 0.00 0.31 0.00 53 1015.9
20260906181101 81 333 4.0 14.0 0.00 0.31 0.00 55 1015.9
20260906180959 81 324 2.0 14.0 0.00 0.31 0.00 52 1016.0
20260906180900 81 55 4.0 14.0 0.00 0.31 0.00 52 1015.9
20260906180759 81 338 5.0 14.0 0.00 0.31 0.00 53 1015.8
20260906180700 81 338 5.0 9.0 0.00 0.31 0.00 52 1015.8
20260906180601 81 73 3.0 9.0 0.00 0.31 0.00 53 1015.9
20260906180500 81 328 5.0 9.0 0.00 0.31 0.00 54 1015.9
20260906180400 81 323 3.0 9.0 0.00 0.31 0.00 53 1015.9
20260906180301 81 360 1.0 9.0 0.00 0.31 0.00 53 1015.9
20260906180159 81 58 2.0 9.0 0.00 0.31 0.00 54 1015.9
20260906175959 81 104 3.0 11.0 0.00 0.31 0.00 52 1015.9
20260906175859 81 63 3.0 11.0 0.00 0.31 0.00 52 1015.9
20260906175759 81 360 6.0 11.0 0.00 0.31 0.00 53 1015.8
20260906175700 81 355 5.0 11.0 0.00 0.31 0.00 53 1015.9
20260906175458 81 17 1.0 11.0 0.00 0.31 0.00 53 1015.8
20260906175359 81 27 5.0 11.0 0.00 0.31 0.00 54 1015.9
20260906175301 81 74 4.0 11.0 0.00 0.31 0.00 53 1015.9
20260906175159 81 350 2.0 11.0 0.00 0.31 0.00 51 1015.9
20260906175058 81 351 3.0 9.0 0.00 0.31 0.00 52 1015.9
20260906174959 81 320 3.0 10.0 0.00 0.31 0.00 53 1015.9
20260906174859 81 5 4.0 10.0 0.00 0.31 0.00 53 1015.9
20260906174759 81 342 0.0 10.0 0.00 0.31 0.00 53 1015.9
20260906174701 81 92 1.0 10.0 0.00 0.31 0.00 53 1015.9
20260906174458 81 280 0.0 10.0 0.00 0.31 0.00 54 1015.9
20260906174359 81 324 3.0 10.0 0.00 0.31 0.00 53 1016.0
20260906174200 81 14 8.0 8.0 0.00 0.31 0.00 54 1015.9
20260906174100 81 325 3.0 5.0 0.00 0.31 0.00 53 1015.9
20260906174000 81 296 1.0 8.0 0.00 0.31 0.00 54 1015.9
20260906173859 81 340 0.0 8.0 0.00 0.31 0.00 54 1016.0
20260906173759 81 36 1.0 8.0 0.00 0.31 0.00 53 1016.0
20260906173659 81 317 3.0 9.0 0.00 0.31 0.00 54 1016.1
20260906173559 81 277 3.0 9.0 0.00 0.31 0.00 54 1016.0
20260906173459 80 295 2.0 9.0 0.00 0.31 0.00 54 1016.0
20260906173358 80 355 3.0 9.0 0.00 0.31 0.00 53 1016.0
20260906173301 80 313 0.0 9.0 0.00 0.31 0.00 54 1016.0
20260906173059 80 137 2.0 10.0 0.00 0.31 0.00 54 1016.1
20260906173000 80 163 0.0 10.0 0.00 0.31 0.00 53 1016.2
20260906172759 80 5 2.0 10.0 0.00 0.31 0.00 53 1016.3
20260906172658 80 336 8.0 10.0 0.00 0.31 0.00 53 1016.2
20260906172558 80 10 8.0 10.0 0.00 0.31 0.00 53 1016.3
20260906172459 80 20 5.0 10.0 0.00 0.31 0.00 53 1016.4
20260906172358 80 21 5.0 13.0 0.00 0.31 0.00 53 1016.4
20260906172159 80 317 8.0 13.0 0.00 0.31 0.00 52 1016.4
20260906172059 80 336 5.0 13.0 0.00 0.31 0.00 53 1016.4
20260906171900 80 5 3.0 13.0 0.00 0.31 0.00 56 1016.3
20260906171759 80 304 1.0 13.0 0.00 0.31 0.00 56 1016.3
20260906171600 80 69 4.0 13.0 0.00 0.31 0.00 54 1016.3
20260906171502 80 332 6.0 13.0 0.00 0.31 0.00 55 1016.2
20260906171400 80 323 4.0 13.0 0.00 0.31 0.00 55 1016.2
20260906171258 80 329 3.0 12.0 0.00 0.31 0.00 55 1016.3
20260906171159 80 80 1.0 12.0 0.00 0.31 0.00 54 1016.3
20260906171059 80 273 3.0 12.0 0.00 0.31 0.00 55 1016.3
20260906170958 80 188 1.0 12.0 0.00 0.31 0.00 54 1016.3
20260906170859 79 20 1.0 12.0 0.00 0.31 0.00 54 1016.4
20260906170800 79 346 3.0 12.0 0.00 0.31 0.00 54 1016.3
20260906170659 80 29 4.0 12.0 0.00 0.31 0.00 54 1016.3
20260906170559 80 11 5.0 12.0 0.00 0.31 0.00 54 1016.3
20260906170358 80 17 7.0 12.0 0.00 0.31 0.00 54 1016.3
20260906170159 80 16 9.0 9.0 0.00 0.31 0.00 52 1016.3
20260906170058 79 250 2.0 11.0 0.00 0.31 0.00 53 1016.3
20260906170001 79 347 2.0 11.0 0.00 0.31 0.00 52 1016.3
20260906165901 79 265 1.0 11.0 0.00 0.31 0.00 53 1016.3
20260906165759 79 198 2.0 11.0 0.00 0.31 0.00 52 1016.4
20260906165659 79 40 3.0 11.0 0.00 0.31 0.00 53 1016.4
20260906165400 79 148 2.0 11.0 0.00 0.31 0.00 52 1016.4
20260906165200 79 33 6.0 12.0 0.00 0.31 0.00 54 1016.5
20260906165100 79 319 8.0 12.0 0.00 0.31 0.00 55 1016.3
20260906164859 79 355 4.0 12.0 0.00 0.31 0.00 54 1016.4
20260906164759 79 10 1.0 12.0 0.00 0.31 0.00 56 1016.4
20260906164700 79 321 2.0 12.0 0.00 0.31 0.00 55 1016.5
20260906164601 79 345 4.0 12.0 0.00 0.31 0.00 54 1016.5
20260906164500 79 355 6.0 10.0 0.00 0.31 0.00 54 1016.5
20260906164401 79 5 0.0 10.0 0.00 0.31 0.00 54 1016.6
20260906164300 79 344 0.0 10.0 0.00 0.31 0.00 54 1016.6
20260906164100 79 15 1.0 10.0 0.00 0.31 0.00 53 1016.5
20260906163900 79 343 3.0 11.0 0.00 0.31 0.00 55 1016.5
20260906163800 79 342 3.0 11.0 0.00 0.31 0.00 55 1016.5
20260906163600 79 5 5.0 11.0 0.00 0.31 0.00 57 1016.5
20260906163401 79 326 3.0 11.0 0.00 0.31 0.00 55 1016.5
20260906163301 79 355 2.0 11.0 0.00 0.31 0.00 58 1016.5
20260906163159 79 342 3.0 11.0 0.00 0.31 0.00 56 1016.5
20260906163059 79 300 2.0 11.0 0.00 0.31 0.00 57 1016.6
20260906162959 78 329 10.0 10.0 0.00 0.31 0.00 57 1016.6
20260906162859 78 342 3.0 7.0 0.00 0.31 0.00 57 1016.6
20260906162759 78 327 0.0 7.0 0.00 0.31 0.00 58 1016.6
20260906162658 78 355 2.0 9.0 0.00 0.31 0.00 57 1016.5
20260906162601 78 180 1.0 9.0 0.00 0.31 0.00 56 1016.6
20260906162459 78 113 0.0 9.0 0.00 0.31 0.00 58 1016.6
20260906162400 78 50 1.0 9.0 0.00 0.31 0.00 57 1016.6
20260906162259 78 44 5.0 9.0 0.00 0.31 0.00 58 1016.7
20260906162158 78 44 4.0 9.0 0.00 0.31 0.00 58 1016.7
20260906161959 78 70 2.0 9.0 0.00 0.31 0.00 56 1016.7
20260906161901 78 241 2.0 9.0 0.00 0.31 0.00 57 1016.8
20260906161759 78 329 5.0 8.0 0.00 0.31 0.00 57 1016.8
20260906161659 78 275 1.0 8.0 0.00 0.31 0.00 57 1016.8
20260906161559 78 50 2.0 11.0 0.00 0.31 0.00 57 1016.8
20260906161501 78 317 2.0 11.0 0.00 0.31 0.00 57 1016.8
20260906161359 78 32 8.0 11.0 0.00 0.31 0.00 57 1016.8
20260906161259 78 91 6.0 11.0 0.00 0.31 0.00 57 1017.3
20260906161159 77 19 7.0 11.0 0.00 0.31 0.00 58 1016.8
20260906161059 77 17 4.0 11.0 0.00 0.31 0.00 59 1016.8
20260906160959 77 77 1.0 12.0 0.00 0.31 0.00 58 1016.8
20260906160901 77 21 2.0 12.0 0.00 0.31 0.00 58 1016.9
20260906160800 77 333 2.0 14.0 0.00 0.31 0.00 57 1016.9
20260906160658 77 12 4.0 14.0 0.00 0.31 0.00 58 1016.9
20260906160600 77 330 3.0 14.0 0.00 0.31 0.00 58 1016.9
20260906160458 77 355 1.0 14.0 0.00 0.31 0.00 58 1016.9
20260906160401 77 80 4.0 14.0 0.00 0.31 0.00 58 1017.0
20260906160159 77 10 4.0 14.0 0.00 0.31 0.00 56 1017.1
20260906160100 77 313 8.0 14.0 0.00 0.31 0.00 57 1017.0
20260906155958 77 20 11.0 14.0 0.00 0.31 0.00 56 1017.1
20260906155859 77 322 6.0 10.0 0.00 0.31 0.00 57 1017.0
20260906155759 77 329 2.0 10.0 0.00 0.31 0.00 58 1016.9
20260906155659 77 360 8.0 9.0 0.00 0.31 0.00 57 1017.0
20260906155459 77 355 6.0 9.0 0.00 0.31 0.00 57 1017.0
20260906155358 77 36 3.0 13.0 0.00 0.31 0.00 57 1017.0
20260906155000 77 5 2.0 13.0 0.00 0.31 0.00 58 1016.9
20260906154858 77 355 5.0 13.0 0.00 0.31 0.00 58 1016.9
20260906154758 77 337 3.0 13.0 0.00 0.31 0.00 58 1016.9
20260906154658 77 5 8.0 13.0 0.00 0.31 0.00 58 1016.9
20260906154559 77 5 4.0 13.0 0.00 0.31 0.00 57 1016.9
20260906154458 77 343 13.0 13.0 0.00 0.31 0.00 57 1016.9
20260906154401 77 38 3.0 9.0 0.00 0.31 0.00 57 1016.9
20260906154259 77 344 8.0 8.0 0.00 0.31 0.00 58 1016.8
20260906154157 77 329 3.0 8.0 0.00 0.31 0.00 61 1016.9
20260906154103 77 327 1.0 8.0 0.00 0.31 0.00 59 1016.8
20260906154000 77 51 3.0 9.0 0.00 0.31 0.00 58 1016.8
20260906153859 77 321 6.0 9.0 0.00 0.31 0.00 59 1016.9
20260906153800 77 323 2.0 9.0 0.00 0.31 0.00 58 1016.9
20260906153659 77 343 0.0 9.0 0.00 0.31 0.00 60 1016.9
20260906153559 77 11 7.0 9.0 0.00 0.31 0.00 60 1016.9
20260906153459 77 326 0.0 10.0 0.00 0.31 0.00 59 1016.9
20260906153359 77 355 4.0 10.0 0.00 0.31 0.00 61 1016.8
20260906153158 76 316 0.0 10.0 0.00 0.31 0.00 60 1016.9
20260906153000 76 347 2.0 10.0 0.00 0.31 0.00 60 1016.9
20260906152900 76 355 3.0 10.0 0.00 0.31 0.00 60 1017.0
20260906152802 76 29 0.0 10.0 0.00 0.31 0.00 60 1017.0
20260906152658 76 17 2.0 10.0 0.00 0.31 0.00 61 1017.0
20260906152559 76 347 5.0 10.0 0.00 0.31 0.00 61 1016.9
20260906152459 76 336 0.0 10.0 0.00 0.31 0.00 62 1016.9
20260906152358 76 306 2.0 10.0 0.00 0.31 0.00 62 1016.8
20260906152300 76 360 10.0 10.0 0.00 0.31 0.00 62 1016.9
20260906152159 76 74 3.0 7.0 0.00 0.31 0.00 61 1016.9
20260906152059 76 37 2.0 7.0 0.00 0.31 0.00 61 1016.9
20260906151958 76 5 2.0 7.0 0.00 0.31 0.00 61 1016.9
20260906151859 76 98 2.0 7.0 0.00 0.31 0.00 61 1016.9
20260906151800 76 344 2.0 7.0 0.00 0.31 0.00 62 1016.9
20260906151659 76 340 2.0 8.0 0.00 0.31 0.00 61 1016.9
20260906151559 76 355 4.0 8.0 0.00 0.31 0.00 61 1016.9
20260906151359 76 48 4.0 8.0 0.00 0.31 0.00 62 1016.9
20260906151258 76 333 8.0 8.0 0.00 0.31 0.00 61 1016.9
20260906151158 75 355 1.0 6.0 0.00 0.31 0.00 61 1016.8
20260906151058 75 342 3.0 6.0 0.00 0.31 0.00 61 1016.8
20260906150959 75 10 4.0 9.0 0.00 0.31 0.00 61 1016.8
20260906150859 75 302 1.0 9.0 0.00 0.31 0.00 63 1016.7
20260906150800 75 346 2.0 11.0 0.00 0.31 0.00 61 1016.8
20260906150659 75 106 2.0 11.0 0.00 0.31 0.00 61 1016.7
20260906150559 75 317 4.0 11.0 0.00 0.31 0.00 61 1016.7
20260906150359 75 319 3.0 11.0 0.00 0.31 0.00 61 1016.6
20260906150259 75 336 2.0 11.0 0.00 0.31 0.00 61 1016.7
20260906150200 75 44 5.0 11.0 0.00 0.31 0.00 60 1016.7
20260906145959 75 94 7.0 9.0 0.00 0.31 0.00 62 1016.8
20260906145900 75 355 4.0 9.0 0.00 0.31 0.00 63 1016.8
20260906145758 75 34 1.0 9.0 0.00 0.31 0.00 63 1016.8
20260906145659 75 309 1.0 9.0 0.00 0.31 0.00 62 1016.8
20260906145459 75 338 4.0 9.0 0.00 0.31 0.00 63 1016.8
20260906145358 75 330 5.0 9.0 0.00 0.31 0.00 64 1016.8
20260906145258 75 329 1.0 9.0 0.00 0.31 0.00 64 1016.8
20260906145201 74 350 5.0 9.0 0.00 0.31 0.00 64 1016.7
20260906145059 74 355 3.0 9.0 0.00 0.31 0.00 64 1016.8
20260906144959 74 11 5.0 9.0 0.00 0.31 0.00 63 1016.8
20260906144859 74 360 1.0 9.0 0.00 0.31 0.00 64 1016.7
20260906144758 74 18 8.0 9.0 0.00 0.31 0.00 64 1016.7
20260906144559 74 28 2.0 10.0 0.00 0.31 0.00 65 1016.6
20260906144500 74 11 7.0 10.0 0.00 0.31 0.00 66 1016.6
20260906144401 74 355 3.0 10.0 0.00 0.31 0.00 64 1016.5
20260906144258 74 94 3.0 10.0 0.00 0.31 0.00 65 1016.5
20260906144158 74 322 3.0 10.0 0.00 0.31 0.00 65 1016.5
20260906144058 74 46 1.0 10.0 0.00 0.31 0.00 64 1016.4
20260906143959 74 20 2.0 10.0 0.00 0.31 0.00 65 1016.5
20260906143858 74 26 3.0 10.0 0.00 0.31 0.00 64 1016.4
20260906143658 74 15 4.0 14.0 0.00 0.31 0.00 65 1016.4
20260906143559 73 42 6.0 14.0 0.00 0.31 0.00 64 1016.5
20260906143459 73 326 1.0 14.0 0.00 0.31 0.00 66 1016.5
20260906143259 73 13 0.0 14.0 0.00 0.31 0.00 66 1016.3
20260906143159 73 9 2.0 14.0 0.00 0.31 0.00 66 1016.4
20260906143101 73 50 3.0 14.0 0.00 0.31 0.00 65 1016.3
20260906142959 73 5 3.0 14.0 0.00 0.31 0.00 66 1016.3
20260906142859 73 312 2.0 11.0 0.00 0.31 0.00 66 1016.2
20260906142759 73 257 3.0 11.0 0.00 0.31 0.00 66 1016.2
20260906142659 73 73 2.0 11.0 0.00 0.31 0.00 66 1016.2
20260906142558 73 360 4.0 10.0 0.00 0.31 0.00 66 1016.3
20260906142459 73 360 2.0 10.0 0.00 0.31 0.00 66 1016.2
20260906142358 73 11 1.0 10.0 0.00 0.31 0.00 67 1016.2
20260906142259 73 338 1.0 10.0 0.00 0.31 0.00 67 1016.3
20260906142100 73 317 8.0 10.0 0.00 0.31 0.00 69 1016.3
20260906141958 73 336 3.0 10.0 0.00 0.31 0.00 68 1016.2
20260906141901 73 355 2.0 11.0 0.00 0.31 0.00 68 1016.2
20260906141759 72 33 4.0 11.0 0.00 0.31 0.00 68 1016.2
20260906141659 72 325 6.0 11.0 0.00 0.31 0.00 68 1016.3
20260906141558 72 321 4.0 11.0 0.00 0.31 0.00 68 1016.2
20260906141458 72 5 4.0 11.0 0.00 0.31 0.00 69 1016.2
20260906141358 72 5 3.0 11.0 0.00 0.31 0.00 68 1016.3
20260906141300 72 257 2.0 11.0 0.00 0.31 0.00 69 1016.2
20260906141200 72 355 1.0 11.0 0.00 0.31 0.00 68 1016.2
20260906141058 72 16 10.0 11.0 0.00 0.31 0.00 69 1016.1
20260906140959 72 5 5.0 9.0 0.00 0.31 0.00 70 1016.2
20260906140859 72 22 3.0 9.0 0.00 0.31 0.00 70 1016.2
20260906140659 72 329 3.0 9.0 0.00 0.31 0.00 71 1016.1
20260906140558 72 306 2.0 9.0 0.00 0.31 0.00 70 1016.1
20260906140500 72 334 3.0 9.0 0.00 0.31 0.00 70 1016.1
20260906140359 72 78 2.0 9.0 0.00 0.31 0.00 70 1016.1
20260906140258 72 5 2.0 9.0 0.00 0.31 0.00 71 1016.2
20260906140159 72 105 1.0 9.0 0.00 0.31 0.00 71 1016.2
20260906140100 72 360 4.0 9.0 0.00 0.31 0.00 72 1016.1
20260906135959 71 224 2.0 9.0 0.00 0.31 0.00 72 1016.1
20260906135858 71 284 0.0 9.0 0.00 0.31 0.00 72 1016.1
20260906135759 71 10 1.0 9.0 0.00 0.31 0.00 71 1016.1
20260906135659 71 40 3.0 9.0 0.00 0.31 0.00 72 1016.1
20260906135558 71 325 5.0 9.0 0.00 0.31 0.00 71 1016.1
20260906135459 71 309 2.0 9.0 0.00 0.31 0.00 72 1016.1
20260906135400 71 26 3.0 9.0 0.00 0.31 0.00 72 1016.1
20260906135300 71 350 3.0 9.0 0.00 0.31 0.00 72 1016.1
20260906135059 71 355 5.0 11.0 0.00 0.31 0.00 73 1016.2
20260906134958 71 348 3.0 11.0 0.00 0.31 0.00 73 1016.2
20260906134759 71 28 3.0 11.0 0.00 0.31 0.00 74 1016.1
20260906134658 71 344 1.0 11.0 0.00 0.31 0.00 74 1016.1
20260906134501 70 63 3.0 11.0 0.00 0.31 0.00 73 1016.1
20260906134402 70 326 2.0 11.0 0.00 0.31 0.00 73 1016.2
20260906134259 70 342 5.0 11.0 0.00 0.31 0.00 73 1016.1
20260906134100 70 337 3.0 10.0 0.00 0.31 0.00 74 1016.2
20260906133959 70 333 0.0 8.0 0.00 0.31 0.00 74 1016.1
20260906133859 70 336 2.0 8.0 0.00 0.31 0.00 75 1016.2
20260906133659 70 17 0.0 8.0 0.00 0.31 0.00 75 1016.2
20260906133559 70 19 1.0 9.0 0.00 0.31 0.00 76 1016.2
20260906133459 70 11 1.0 9.0 0.00 0.31 0.00 76 1016.2
20260906133402 69 44 4.0 9.0 0.00 0.31 0.00 76 1016.2
20260906133258 69 59 3.0 10.0 0.00 0.31 0.00 76 1016.3
20260906133200 69 314 2.0 10.0 0.00 0.31 0.00 75 1016.2
20260906133100 69 332 5.0 10.0 0.00 0.31 0.00 76 1016.3
20260906132959 69 355 2.0 10.0 0.00 0.31 0.00 76 1016.2
20260906132859 69 348 4.0 10.0 0.00 0.31 0.00 76 1016.2
20260906132759 69 47 3.0 10.0 0.00 0.31 0.00 76 1016.2
20260906132559 69 350 3.0 10.0 0.00 0.31 0.00 77 1016.2
20260906132500 69 315 2.0 10.0 0.00 0.31 0.00 76 1016.1
20260906132401 69 33 5.0 10.0 0.00 0.31 0.00 77 1016.1
20260906132159 68 355 5.0 10.0 0.00 0.31 0.00 77 1016.0
20260906132103 68 360 5.0 10.0 0.00 0.31 0.00 78 1016.1
20260906131958 68 322 2.0 10.0 0.00 0.31 0.00 78 1016.0
20260906131800 68 19 2.0 10.0 0.00 0.31 0.00 78 1016.1
20260906131659 68 333 4.0 10.0 0.00 0.31 0.00 77 1016.0
20260906131401 68 355 6.0 10.0 0.00 0.31 0.00 78 1016.1
20260906131259 68 341 3.0 9.0 0.00 0.31 0.00 78 1016.1
20260906131201 68 51 1.0 9.0 0.00 0.31 0.00 79 1016.1
20260906131059 68 48 2.0 9.0 0.00 0.31 0.00 78 1016.0
20260906130900 68 94 3.0 6.0 0.00 0.31 0.00 80 1016.0
20260906130801 68 321 1.0 6.0 0.00 0.31 0.00 80 1015.9
20260906130659 68 340 5.0 6.0 0.00 0.31 0.00 80 1016.1
20260906130559 68 27 2.0 6.0 0.00 0.31 0.00 80 1016.0
20260906130458 68 38 2.0 6.0 0.00 0.31 0.00 80 1016.0
20260906130358 68 49 1.0 6.0 0.00 0.31 0.00 80 1016.1
20260906130158 68 5 3.0 6.0 0.00 0.31 0.00 81 1016.1
20260906130058 68 350 1.0 7.0 0.00 0.31 0.00 81 1016.1
20260906130000 68 20 1.0 5.0 0.00 0.32 0.00 81 1016.1
20260906125859 68 344 2.0 6.0 0.00 0.32 0.00 81 1016.1
20260906125800 67 355 2.0 6.0 0.00 0.32 0.00 81 1016.1
20260906125658 67 86 1.0 6.0 0.00 0.32 0.00 81 1016.1
20260906125558 67 37 0.0 6.0 0.00 0.32 0.00 81 1016.1
20260906125459 67 340 2.0 6.0 0.00 0.32 0.00 81 1016.1
20260906125358 67 336 2.0 6.0 0.00 0.32 0.00 81 1016.1
20260906125258 67 84 2.0 6.0 0.00 0.32 0.00 81 1016.1
20260906125101 67 44 0.0 9.0 0.00 0.32 0.00 82 1016.1
20260906124958 67 344 3.0 9.0 0.00 0.32 0.00 82 1016.1
20260906124859 67 28 4.0 9.0 0.00 0.32 0.00 82 1016.1
20260906124758 67 27 1.0 9.0 0.00 0.32 0.00 82 1016.0
20260906124659 67 9 0.0 9.0 0.00 0.32 0.00 82 1016.0
20260906124358 67 355 0.0 9.0 0.00 0.32 0.00 82 1016.0
20260906124300 67 80 7.0 8.0 0.00 0.32 0.00 82 1016.1
20260906124158 67 55 3.0 8.0 0.00 0.32 0.00 82 1016.0
20260906123959 67 5 2.0 6.0 0.00 0.32 0.00 83 1016.0
20260906123759 67 355 3.0 6.0 0.00 0.32 0.00 83 1016.0
20260906123700 67 65 1.0 6.0 0.00 0.32 0.00 83 1016.0
20260906123559 67 52 4.0 5.0 0.00 0.32 0.00 83 1016.0
20260906123359 66 333 1.0 5.0 0.00 0.32 0.00 83 1016.0
20260906123258 66 360 4.0 6.0 0.00 0.32 0.00 84 1015.9
20260906123158 66 360 2.0 6.0 0.00 0.32 0.00 83 1015.9
20260906122959 66 38 2.0 6.0 0.00 0.32 0.00 84 1015.9
20260906122901 66 349 3.0 6.0 0.00 0.32 0.00 84 1015.9
20260906122759 66 319 4.0 6.0 0.00 0.32 0.00 84 1015.8
20260906122658 66 33 1.0 6.0 0.00 0.32 0.00 84 1015.8
20260906122600 66 19 2.0 6.0 0.00 0.32 0.00 83 1015.8
20260906122458 66 96 3.0 6.0 0.00 0.32 0.00 84 1015.8
20260906122259 66 16 2.0 5.0 0.00 0.32 0.00 84 1015.8
20260906122059 66 36 2.0 5.0 0.00 0.32 0.00 84 1015.7
20260906122000 66 9 2.0 5.0 0.00 0.32 0.00 84 1015.7
20260906121858 66 23 5.0 5.0 0.00 0.32 0.00 84 1015.7
20260906121759 66 20 4.0 5.0 0.00 0.32 0.00 84 1015.7
20260906121658 66 350 1.0 5.0 0.00 0.32 0.00 84 1015.7
20260906121559 66 348 3.0 5.0 0.00 0.32 0.00 84 1015.7
20260906121501 66 347 1.0 5.0 0.00 0.32 0.00 84 1015.6
20260906121358 66 345 2.0 5.0 0.00 0.32 0.00 85 1015.6
20260906121300 66 62 1.0 8.0 0.00 0.32 0.00 85 1015.7
20260906121158 66 46 2.0 8.0 0.00 0.32 0.00 85 1015.7
20260906121059 66 5 3.0 8.0 0.00 0.32 0.00 85 1015.7
20260906120959 66 345 3.0 8.0 0.00 0.32 0.00 85 1015.6
20260906120859 66 5 1.0 8.0 0.00 0.32 0.00 85 1015.7
20260906120759 66 5 0.0 8.0 0.00 0.32 0.00 85 1015.6
20260906120658 66 5 2.0 8.0 0.00 0.32 0.00 85 1015.7
20260906120559 66 355 1.0 8.0 0.00 0.32 0.00 85 1015.7
20260906120500 66 15 4.0 8.0 0.00 0.32 0.00 86 1015.7
20260906120359 66 355 0.0 5.0 0.00 0.32 0.00 86 1015.6
20260906120259 66 5 1.0 5.0 0.00 0.32 0.00 86 1015.6
20260906120159 66 339 0.0 5.0 0.00 0.32 0.00 86 1015.6
20260906120059 66 16 4.0 4.0 0.00 0.32 0.00 86 1015.6
20260906115959 66 355 2.0 4.0 0.00 0.40 0.00 86 1015.6
20260906115659 66 5 2.0 6.0 0.00 0.40 0.00 86 1015.5
20260906115559 66 338 3.0 6.0 0.00 0.40 0.00 86 1015.5
20260906115459 66 29 2.0 6.0 0.00 0.40 0.00 86 1015.5
20260906115359 66 9 1.0 6.0 0.00 0.40 0.00 86 1015.4
20260906115258 66 5 1.0 8.0 0.00 0.40 0.00 86 1015.3
20260906115100 66 339 3.0 8.0 0.00 0.40 0.00 86 1015.3
20260906115000 66 350 4.0 8.0 0.00 0.40 0.00 86 1015.3
20260906114858 66 343 2.0 8.0 0.00 0.40 0.00 86 1015.2
20260906114800 66 345 6.0 8.0 0.00 0.40 0.00 86 1015.2
20260906114659 66 5 2.0 8.0 0.00 0.40 0.00 86 1015.2
20260906114559 66 9 3.0 8.0 0.00 0.40 0.00 86 1015.2
20260906114459 66 29 0.0 8.0 0.00 0.40 0.00 86 1015.1
20260906114400 66 80 5.0 8.0 0.00 0.40 0.00 87 1015.0
20260906114259 66 355 4.0 6.0 0.00 0.40 0.00 87 1015.1
20260906114159 66 30 2.0 6.0 0.00 0.40 0.00 87 1015.1
20260906114058 66 355 3.0 6.0 0.00 0.40 0.00 87 1015.1
20260906113959 66 16 2.0 6.0 0.00 0.40 0.00 87 1015.1
20260906113859 66 338 2.0 6.0 0.00 0.40 0.00 87 1015.1
20260906113758 66 349 2.0 6.0 0.00 0.40 0.00 87 1015.1
20260906113658 66 63 3.0 6.0 0.00 0.40 0.00 87 1015.1
20260906113558 66 24 3.0 6.0 0.00 0.40 0.00 87 1015.0
20260906113500 66 25 3.0 5.0 0.00 0.40 0.00 87 1015.0
20260906113358 66 15 2.0 5.0 0.00 0.40 0.00 87 1015.0
20260906113300 66 5 2.0 5.0 0.00 0.40 0.00 87 1015.0
20260906113159 66 346 2.0 5.0 0.00 0.40 0.00 87 1015.0
20260906112958 66 40 2.0 5.0 0.00 0.40 0.00 87 1015.0
20260906112803 66 23 3.0 5.0 0.00 0.40 0.00 87 1014.9
20260906112702 66 109 3.0 5.0 0.00 0.40 0.00 88 1015.0
20260906112500 66 58 1.0 5.0 0.00 0.40 0.00 88 1015.0
20260906112401 66 15 2.0 5.0 0.00 0.40 0.00 88 1015.0
20260906112058 66 41 4.0 4.0 0.00 0.40 0.00 88 1014.9
20260906111958 66 17 2.0 4.0 0.00 0.40 0.00 88 1014.9
20260906111859 66 5 2.0 4.0 0.00 0.40 0.00 88 1014.9
20260906111759 66 18 0.0 4.0 0.00 0.40 0.00 88 1014.9
20260906111659 66 32 1.0 4.0 0.00 0.40 0.00 88 1014.9
20260906111559 66 24 4.0 4.0 0.00 0.40 0.00 88 1014.9
20260906111459 66 319 2.0 4.0 0.00 0.40 0.00 89 1014.9
20260906111406 66 46 2.0 5.0 0.00 0.40 0.00 89 1014.8
20260906111259 66 55 0.0 6.0 0.00 0.40 0.00 89 1014.7
20260906111200 66 39 3.0 6.0 0.00 0.40 0.00 89 1014.8
20260906111059 66 355 1.0 6.0 0.00 0.40 0.00 89 1014.7
20260906110958 66 348 0.0 6.0 0.00 0.40 0.00 89 1014.7
20260906110859 66 13 2.0 6.0 0.00 0.40 0.00 89 1014.8
20260906110758 66 103 1.0 6.0 0.00 0.40 0.00 89 1014.7
20260906110659 66 336 0.0 6.0 0.00 0.40 0.00 89 1014.7
20260906110558 66 15 2.0 6.0 0.00 0.40 0.00 89 1014.6
20260906110500 66 38 3.0 6.0 0.00 0.40 0.00 89 1014.7
20260906110400 66 27 3.0 6.0 0.00 0.40 0.00 89 1014.7
20260906110300 66 22 1.0 6.0 0.00 0.40 0.00 89 1014.6
20260906110058 67 29 3.0 5.0 0.00 0.40 0.00 89 1014.7
20260906110001 67 34 3.0 4.0 0.00 0.40 0.00 89 1014.7
20260906105900 67 22 2.0 4.0 0.00 0.45 0.00 89 1014.7
20260906105759 67 42 2.0 4.0 0.00 0.45 0.00 89 1014.7
20260906105658 67 23 1.0 6.0 0.00 0.45 0.00 89 1014.8
20260906105559 67 24 3.0 6.0 0.00 0.45 0.00 89 1014.8
20260906105501 67 24 0.0 6.0 0.00 0.45 0.00 89 1014.8
20260906105400 67 37 2.0 6.0 0.00 0.45 0.00 89 1014.8
20260906105300 67 38 2.0 6.0 0.00 0.45 0.00 89 1014.8
20260906105158 67 19 0.0 6.0 0.00 0.45 0.00 89 1014.7
20260906104959 67 18 1.0 6.0 0.00 0.45 0.00 89 1014.8
20260906104859 67 23 1.0 6.0 0.00 0.45 0.00 89 1014.8
20260906104759 67 9 4.0 6.0 0.00 0.45 0.00 89 1014.7
20260906104659 67 42 0.0 6.0 0.00 0.45 0.00 89 1014.7
20260906104600 67 44 0.0 6.0 0.00 0.45 0.00 89 1014.7
20260906104459 67 355 0.0 6.0 0.00 0.45 0.00 89 1014.6
20260906104359 67 336 1.0 6.0 0.00 0.45 0.00 89 1014.7
20260906104159 67 346 2.0 6.0 0.00 0.45 0.00 90 1014.6
20260906104059 67 306 3.0 6.0 0.00 0.45 0.00 90 1014.6
20260906103859 67 9 2.0 6.0 0.00 0.45 0.00 90 1014.5
20260906103758 67 360 1.0 6.0 0.00 0.45 0.00 90 1014.5
20260906103659 67 355 3.0 6.0 0.00 0.45 0.00 90 1014.5
20260906103559 67 338 3.0 6.0 0.00 0.45 0.00 90 1014.5
20260906103459 67 19 4.0 6.0 0.00 0.45 0.00 90 1014.5
20260906103358 67 27 1.0 6.0 0.00 0.45 0.00 90 1014.5
20260906103159 67 348 2.0 6.0 0.00 0.45 0.00 90 1014.5
20260906103058 67 30 2.0 6.0 0.00 0.45 0.00 90 1014.5
20260906103000 67 338 3.0 6.0 0.00 0.45 0.00 90 1014.4
20260906102901 67 343 3.0 6.0 0.00 0.45 0.00 90 1014.5
20260906102558 67 355 2.0 6.0 0.00 0.45 0.00 90 1014.4
20260906102459 67 331 4.0 5.0 0.00 0.45 0.00 90 1014.4
20260906102400 67 11 2.0 5.0 0.00 0.45 0.00 90 1014.5
20260906102259 67 5 4.0 4.0 0.00 0.45 0.00 90 1014.4
20260906102158 67 5 1.0 3.0 0.00 0.45 0.00 90 1014.4
20260906102058 67 341 0.0 5.0 0.00 0.45 0.00 90 1014.4
20260906101958 67 347 0.0 5.0 0.00 0.45 0.00 90 1014.4
20260906101859 67 360 0.0 5.0 0.00 0.45 0.00 90 1014.4
20260906101759 67 351 1.0 5.0 0.00 0.45 0.00 90 1014.4
20260906101657 68 19 1.0 5.0 0.00 0.45 0.00 90 1014.5
20260906101501 68 40 2.0 5.0 0.00 0.45 0.00 90 1014.4
20260906101359 68 59 1.0 5.0 0.00 0.45 0.00 90 1014.4
20260906101300 68 39 2.0 5.0 0.00 0.45 0.00 90 1014.3
20260906101158 68 355 1.0 5.0 0.00 0.45 0.00 90 1014.3
20260906101059 68 342 2.0 6.0 0.00 0.45 0.00 90 1014.3
20260906100959 68 34 2.0 6.0 0.00 0.45 0.00 90 1014.3
20260906100859 68 36 0.0 6.0 0.00 0.45 0.00 90 1014.3
20260906100802 68 24 1.0 6.0 0.00 0.45 0.00 90 1014.3
20260906100659 68 5 2.0 6.0 0.00 0.45 0.00 90 1014.3
20260906100559 68 113 1.0 6.0 0.00 0.45 0.00 90 1014.3
20260906100459 68 31 4.0 6.0 0.00 0.45 0.00 90 1014.3
20260906100359 68 337 0.0 6.0 0.00 0.45 0.00 90 1014.3
20260906100258 68 328 3.0 6.0 0.00 0.45 0.00 90 1014.2
20260906100159 68 9 2.0 5.0 0.00 0.45 0.00 90 1014.3
20260906100059 68 321 4.0 5.0 0.00 0.45 0.00 90 1014.2
20260906100000 68 39 2.0 4.0 0.00 0.45 0.00 90 1014.2
20260906095858 68 17 0.0 4.0 0.00 0.45 0.00 90 1014.2
20260906095800 68 17 0.0 4.0 0.00 0.45 0.00 90 1014.2
20260906095658 68 32 0.0 5.0 0.00 0.45 0.00 90 1014.2
20260906095558 68 36 3.0 5.0 0.00 0.45 0.00 90 1014.2
20260906095500 68 342 2.0 5.0 0.00 0.45 0.00 90 1014.2
20260906095358 68 34 2.0 5.0 0.00 0.45 0.00 90 1014.2
20260906095259 68 5 2.0 5.0 0.00 0.45 0.00 90 1014.2
20260906095059 68 347 1.0 5.0 0.00 0.45 0.00 90 1014.2
20260906095000 68 35 2.0 5.0 0.00 0.45 0.00 90 1014.2
20260906094858 68 28 1.0 5.0 0.00 0.45 0.00 90 1014.2
20260906094759 68 342 4.0 5.0 0.00 0.45 0.00 90 1014.2
20260906094659 68 41 4.0 4.0 0.00 0.45 0.00 90 1014.1
20260906094559 68 67 4.0 4.0 0.00 0.45 0.00 90 1014.1
20260906094458 69 360 2.0 4.0 0.00 0.45 0.00 90 1014.1
20260906094359 69 32 3.0 5.0 0.00 0.45 0.00 90 1014.0
20260906094259 69 346 2.0 5.0 0.00 0.45 0.00 90 1014.1
20260906094058 69 18 0.0 5.0 0.00 0.45 0.00 90 1014.0
20260906093958 69 29 3.0 5.0 0.00 0.45 0.00 90 1014.1
20260906093859 69 5 0.0 5.0 0.00 0.45 0.00 90 1014.0
20260906093758 69 5 2.0 5.0 0.00 0.45 0.00 91 1014.0
20260906093659 69 355 2.0 8.0 0.00 0.45 0.00 91 1014.0
20260906093600 69 49 1.0 8.0 0.00 0.45 0.00 90 1014.0
20260906093459 69 18 1.0 8.0 0.00 0.45 0.00 90 1014.0
20260906093359 69 10 5.0 8.0 0.00 0.45 0.00 91 1014.1
20260906093300 69 34 3.0 8.0 0.00 0.45 0.00 91 1014.0
20260906093159 69 313 2.0 8.0 0.00 0.45 0.00 91 1013.9
20260906093058 69 24 4.0 8.0 0.00 0.45 0.00 91 1014.0
20260906092958 69 348 2.0 8.0 0.00 0.45 0.00 91 1014.0
20260906092857 69 342 2.0 8.0 0.00 0.45 0.00 91 1013.9
20260906092759 69 351 4.0 5.0 0.00 0.45 0.00 91 1013.9
20260906092701 69 38 3.0 5.0 0.00 0.45 0.00 91 1013.9
20260906092600 69 34 3.0 8.0 0.00 0.45 0.00 91 1013.9
20260906092359 69 15 0.0 8.0 0.00 0.45 0.00 91 1013.9
20260906092300 69 355 0.0 8.0 0.00 0.45 0.00 91 1013.8
20260906091958 69 346 1.0 8.0 0.00 0.45 0.00 91 1013.8
20260906091759 69 28 6.0 8.0 0.00 0.45 0.00 91 1013.8
20260906091659 69 331 3.0 9.0 0.00 0.45 0.00 91 1013.8
20260906091602 69 40 3.0 10.0 0.00 0.45 0.00 91 1013.7
20260906091459 70 97 3.0 10.0 0.00 0.45 0.00 91 1013.8
20260906091358 70 350 5.0 10.0 0.00 0.45 0.00 91 1013.8
20260906091259 70 5 5.0 10.0 0.00 0.45 0.00 91 1013.7
20260906091158 70 355 3.0 10.0 0.00 0.45 0.00 91 1013.7
20260906090858 70 22 2.0 10.0 0.00 0.45 0.00 91 1013.7
20260906090759 70 337 5.0 10.0 0.00 0.45 0.00 91 1013.6
20260906090658 70 346 5.0 9.0 0.00 0.45 0.00 92 1013.7
20260906090558 70 305 4.0 9.0 0.00 0.45 0.00 92 1013.6
20260906090358 70 19 0.0 13.0 0.00 0.45 0.00 92 1013.7
20260906090258 70 21 1.0 13.0 0.00 0.45 0.00 92 1013.6
20260906090159 70 350 2.0 13.0 0.00 0.45 0.00 92 1013.6
20260906090059 70 59 6.0 13.0 0.00 0.45 0.00 92 1013.6
20260906090000 70 11 4.0 13.0 0.00 0.45 0.00 92 1013.6
20260906085903 70 308 5.0 13.0 0.00 0.45 0.00 92 1013.6
20260906085758 70 5 4.0 13.0 0.00 0.45 0.00 92 1013.6
20260906085700 70 57 5.0 13.0 0.00 0.45 0.00 92 1013.6
20260906085559 70 15 7.0 13.0 0.00 0.45 0.00 92 1013.5
20260906085458 70 5 2.0 8.0 0.00 0.45 0.00 92 1013.5
20260906085400 70 5 4.0 8.0 0.00 0.45 0.00 92 1013.5
20260906085259 70 360 3.0 7.0 0.00 0.45 0.00 92 1013.5
20260906085158 70 28 2.0 7.0 0.00 0.45 0.00 92 1013.5
20260906085059 70 327 1.0 7.0 0.00 0.45 0.00 92 1013.5
20260906084958 70 342 2.0 7.0 0.00 0.45 0.00 92 1013.5
20260906084758 70 332 0.0 6.0 0.00 0.45 0.00 92 1013.5
20260906084700 70 350 3.0 6.0 0.00 0.45 0.00 92 1013.5
20260906084500 70 18 2.0 6.0 0.00 0.45 0.00 92 1013.5
20260906084358 70 360 3.0 6.0 0.00 0.45 0.00 92 1013.5
20260906084257 70 360 2.0 6.0 0.00 0.45 0.00 92 1013.6
20260906084058 70 16 1.0 6.0 0.00 0.45 0.00 92 1013.5
20260906083958 70 37 3.0 6.0 0.00 0.45 0.00 92 1013.5
20260906083858 70 15 3.0 9.0 0.00 0.45 0.00 92 1013.5
20260906083658 70 355 4.0 9.0 0.00 0.45 0.00 92 1013.5
20260906083558 70 350 4.0 9.0 0.00 0.45 0.00 92 1013.6
20260906083458 70 40 2.0 9.0 0.00 0.45 0.00 92 1013.5
20260906083358 70 24 2.0 9.0 0.00 0.45 0.00 92 1013.5
20260906083258 70 360 1.0 9.0 0.00 0.45 0.00 92 1013.6
20260906083159 70 31 2.0 9.0 0.00 0.45 0.00 92 1013.5
20260906083058 70 24 2.0 9.0 0.00 0.45 0.00 92 1013.6
20260906082958 70 355 4.0 5.0 0.00 0.45 0.00 92 1013.6
20260906082859 70 335 2.0 5.0 0.00 0.45 0.00 92 1013.5
20260906082758 70 42 2.0 5.0 0.00 0.45 0.00 92 1013.5
20260906082458 70 15 0.0 5.0 0.00 0.45 0.00 92 1013.7
20260906082358 70 348 3.0 5.0 0.00 0.45 0.00 92 1013.6
20260906082257 70 46 2.0 5.0 0.00 0.45 0.00 92 1013.6
20260906082159 70 13 2.0 5.0 0.00 0.45 0.00 92 1013.7
20260906082058 70 348 3.0 5.0 0.00 0.45 0.00 92 1013.7
20260906082003 70 355 3.0 5.0 0.00 0.45 0.00 92 1013.6
20260906081902 70 57 1.0 8.0 0.00 0.45 0.00 92 1013.7
20260906081800 70 30 1.0 9.0 0.00 0.45 0.00 92 1013.6
20260906081702 70 9 2.0 9.0 0.00 0.45 0.00 92 1013.6
20260906081559 70 16 2.0 9.0 0.00 0.45 0.00 92 1013.6
20260906081459 70 350 3.0 9.0 0.00 0.45 0.00 92 1013.6
20260906081358 71 347 2.0 9.0 0.00 0.45 0.00 92 1013.6
20260906081258 71 46 4.0 9.0 0.00 0.45 0.00 92 1013.5
20260906081201 71 20 0.0 9.0 0.00 0.45 0.00 92 1013.5
20260906081058 71 41 3.0 9.0 0.00 0.45 0.00 92 1013.5
20260906080959 71 314 5.0 9.0 0.00 0.45 0.00 92 1013.5
20260906080859 71 40 1.0 6.0 0.00 0.45 0.00 92 1013.5
20260906080759 71 30 2.0 6.0 0.00 0.45 0.00 92 1013.6
20260906080657 71 347 4.0 6.0 0.00 0.45 0.00 92 1013.5
20260906080558 71 24 2.0 6.0 0.00 0.45 0.00 92 1013.5
20260906080458 71 12 2.0 6.0 0.00 0.45 0.00 92 1013.5
20260906080359 71 55 2.0 6.0 0.00 0.45 0.00 92 1013.5
20260906080259 71 9 2.0 6.0 0.00 0.45 0.00 92 1013.5
20260906080158 71 65 1.0 6.0 0.00 0.45 0.00 92 1013.5
20260906080002 71 12 4.0 6.0 0.00 0.45 0.00 92 1013.5
20260906075859 71 9 4.0 6.0 0.00 0.45 0.00 92 1013.5
20260906075758 71 12 3.0 6.0 0.00 0.45 0.00 92 1013.5
20260906075659 71 63 4.0 6.0 0.00 0.45 0.00 92 1013.5
20260906075559 71 360 2.0 5.0 0.00 0.45 0.00 92 1013.5
20260906075458 71 355 1.0 5.0 0.00 0.45 0.00 92 1013.5
20260906075359 71 360 2.0 5.0 0.00 0.45 0.00 92 1013.5
20260906075259 71 41 0.0 5.0 0.00 0.45 0.00 92 1013.5
20260906075200 71 10 2.0 5.0 0.00 0.45 0.00 92 1013.4
20260906075059 71 25 1.0 6.0 0.00 0.45 0.00 92 1013.5
20260906074959 71 336 2.0 6.0 0.00 0.45 0.00 92 1013.4
20260906074858 71 345 3.0 6.0 0.00 0.45 0.00 92 1013.5
20260906074758 71 48 3.0 6.0 0.00 0.45 0.00 92 1013.5
20260906074658 71 10 4.0 6.0 0.00 0.45 0.00 92 1013.4
20260906074559 71 32 2.0 6.0 0.00 0.45 0.00 92 1013.5
20260906074500 71 16 1.0 6.0 0.00 0.45 0.00 92 1013.4
20260906074359 71 12 3.0 6.0 0.00 0.45 0.00 92 1013.4
20260906074300 71 49 2.0 6.0 0.00 0.45 0.00 92 1013.4
20260906074159 71 355 2.0 6.0 0.00 0.45 0.00 92 1013.4
20260906074059 71 340 1.0 8.0 0.00 0.45 0.00 92 1013.4
20260906073958 71 87 2.0 8.0 0.00 0.45 0.00 92 1013.3
20260906073900 71 342 3.0 8.0 0.00 0.45 0.00 92 1013.4
20260906073758 71 45 3.0 8.0 0.00 0.45 0.00 92 1013.4
20260906073659 71 9 2.0 8.0 0.00 0.45 0.00 92 1013.4
20260906073559 71 355 4.0 8.0 0.00 0.45 0.00 92 1013.4
20260906073459 71 57 3.0 8.0 0.00 0.45 0.00 92 1013.4
20260906073300 71 355 6.0 8.0 0.00 0.45 0.00 92 1013.4
20260906073158 71 351 3.0 6.0 0.00 0.45 0.00 92 1013.4
20260906073059 71 355 4.0 6.0 0.00 0.45 0.00 92 1013.4
20260906072859 71 24 3.0 6.0 0.00 0.45 0.00 92 1013.4
20260906072700 71 5 4.0 5.0 0.00 0.45 0.00 92 1013.4
20260906072601 71 355 3.0 10.0 0.00 0.45 0.00 92 1013.4
20260906072259 71 31 1.0 10.0 0.00 0.45 0.00 92 1013.5
20260906072159 71 69 2.0 10.0 0.00 0.45 0.00 92 1013.6
20260906072100 71 22 3.0 10.0 0.00 0.45 0.00 92 1013.6
20260906071958 71 13 3.0 10.0 0.00 0.45 0.00 92 1013.5
20260906071759 71 355 2.0 10.0 0.00 0.45 0.00 92 1013.7
20260906071658 71 24 6.0 8.0 0.00 0.45 0.00 92 1013.6
20260906071559 71 57 2.0 4.0 0.00 0.45 0.00 92 1013.7
20260906071459 71 355 2.0 4.0 0.00 0.45 0.00 92 1013.6
20260906071258 71 311 3.0 4.0 0.00 0.45 0.00 92 1013.6
20260906071158 71 360 2.0 4.0 0.00 0.45 0.00 92 1013.7
20260906071058 71 60 3.0 4.0 0.00 0.45 0.00 92 1013.7
20260906070959 71 17 0.0 4.0 0.00 0.45 0.00 92 1013.7
20260906070759 71 9 1.0 4.0 0.00 0.45 0.00 92 1013.6
20260906070658 71 27 1.0 4.0 0.00 0.45 0.00 92 1013.7
20260906070559 71 34 2.0 4.0 0.00 0.45 0.00 92 1013.7
20260906070458 71 355 2.0 4.0 0.00 0.45 0.00 92 1013.7
20260906070359 71 30 0.0 4.0 0.00 0.45 0.00 92 1013.8
20260906070258 71 355 0.0 4.0 0.00 0.45 0.00 92 1013.7
20260906070058 71 65 1.0 5.0 0.00 0.45 0.00 92 1013.8
20260906070001 71 344 0.0 5.0 0.00 0.45 0.00 92 1013.8
20260906065658 71 44 2.0 6.0 0.00 0.45 0.00 92 1013.7
20260906065558 71 5 2.0 6.0 0.00 0.45 0.00 92 1013.7
20260906065458 72 44 0.0 6.0 0.00 0.45 0.00 92 1013.7
20260906065359 72 5 2.0 6.0 0.00 0.45 0.00 92 1013.7
20260906065259 72 49 4.0 6.0 0.00 0.45 0.00 93 1013.6
20260906065158 72 5 2.0 6.0 0.00 0.45 0.00 92 1013.6
20260906065058 72 360 1.0 6.0 0.00 0.45 0.00 93 1013.6
20260906064959 72 11 2.0 6.0 0.00 0.45 0.00 93 1013.6
20260906064859 72 344 4.0 6.0 0.00 0.45 0.00 93 1013.6
20260906064757 72 72 2.0 6.0 0.00 0.45 0.00 93 1013.6
20260906064658 72 39 1.0 6.0 0.00 0.45 0.00 93 1013.6
20260906064558 72 49 1.0 6.0 0.00 0.45 0.00 93 1013.7
20260906064458 72 360 0.0 6.0 0.00 0.45 0.00 93 1013.6
20260906064358 72 355 0.0 6.0 0.00 0.45 0.00 93 1013.7
20260906064259 72 360 0.0 6.0 0.00 0.45 0.00 93 1013.7
20260906064159 72 335 2.0 6.0 0.00 0.45 0.00 93 1013.7
20260906064100 72 36 4.0 6.0 0.00 0.45 0.00 93 1013.6
20260906064000 72 355 0.0 3.0 0.00 0.45 0.00 93 1013.7
20260906063858 72 355 0.0 3.0 0.00 0.45 0.00 93 1013.7
20260906063759 72 5 0.0 3.0 0.00 0.45 0.00 93 1013.7
20260906063658 72 5 0.0 3.0 0.00 0.45 0.00 93 1013.7
20260906063559 72 355 0.0 3.0 0.00 0.45 0.00 93 1013.7
20260906063358 72 360 2.0 3.0 0.00 0.45 0.00 93 1013.7
20260906063257 72 5 1.0 3.0 0.00 0.45 0.00 93 1013.7
20260906063058 72 36 2.0 3.0 0.00 0.45 0.00 93 1013.7
20260906062958 72 341 2.0 3.0 0.00 0.45 0.00 93 1013.7
20260906062800 72 360 0.0 3.0 0.00 0.45 0.00 93 1013.6
20260906062659 72 19 3.0 3.0 0.00 0.45 0.00 93 1013.6
20260906062600 72 63 1.0 6.0 0.00 0.45 0.00 93 1013.7
20260906062459 72 15 0.0 6.0 0.00 0.45 0.00 93 1013.6
20260906062358 72 30 0.0 6.0 0.00 0.45 0.00 93 1013.5
20260906062259 72 22 0.0 6.0 0.00 0.45 0.00 93 1013.6
20260906062159 72 20 1.0 6.0 0.00 0.45 0.00 93 1013.6
20260906062058 72 343 0.0 6.0 0.00 0.45 0.00 93 1013.6
20260906061958 72 63 2.0 6.0 0.00 0.45 0.00 93 1013.6
20260906061858 72 15 1.0 6.0 0.00 0.45 0.00 93 1013.5
20260906061758 72 28 2.0 6.0 0.00 0.45 0.00 93 1013.5
20260906061658 72 13 3.0 3.0 0.00 0.45 0.00 93 1013.5
20260906061559 72 323 1.0 5.0 0.00 0.45 0.00 93 1013.6
20260906061458 72 53 2.0 5.0 0.00 0.45 0.00 93 1013.6
20260906061259 72 5 0.0 5.0 0.00 0.45 0.00 93 1013.6
20260906061158 72 336 2.0 5.0 0.00 0.45 0.00 93 1013.6
20260906061058 72 355 0.0 5.0 0.00 0.45 0.00 93 1013.7
20260906060959 72 343 0.0 5.0 0.00 0.45 0.00 93 1013.7
20260906060900 72 18 0.0 5.0 0.00 0.45 0.00 93 1013.7
20260906060758 72 351 4.0 5.0 0.00 0.45 0.00 93 1013.7
20260906060558 72 336 3.0 5.0 0.00 0.45 0.00 93 1013.7
20260906060458 72 355 3.0 5.0 0.00 0.45 0.00 93 1013.8
20260906060359 72 348 1.0 5.0 0.00 0.45 0.00 93 1013.7
20260906060159 72 344 1.0 5.0 0.00 0.45 0.00 93 1013.8
20260906060058 72 17 1.0 5.0 0.00 0.45 0.00 93 1013.7
20260906055958 72 355 0.0 5.0 0.00 0.45 0.00 93 1013.7
20260906055757 72 338 1.0 5.0 0.00 0.45 0.00 93 1013.8
20260906055658 72 331 0.0 4.0 0.00 0.45 0.00 93 1013.8
20260906055557 72 22 0.0 4.0 0.00 0.45 0.00 93 1013.8
20260906055457 72 5 0.0 4.0 0.00 0.45 0.00 93 1013.8
20260906055359 72 24 3.0 4.0 0.00 0.45 0.00 93 1013.7
20260906055257 72 11 0.0 4.0 0.00 0.45 0.00 93 1013.8
20260906055057 72 5 2.0 4.0 0.00 0.45 0.00 93 1013.8
20260906054957 72 22 2.0 4.0 0.00 0.45 0.00 93 1013.8
20260906054857 72 9 0.0 4.0 0.00 0.45 0.00 93 1013.8
20260906054757 72 44 1.0 4.0 0.00 0.45 0.00 93 1013.8
20260906054701 72 67 1.0 4.0 0.00 0.45 0.00 93 1013.8
20260906054556 72 13 0.0 3.0 0.00 0.45 0.00 93 1013.8
20260906054458 72 341 0.0 3.0 0.00 0.45 0.00 93 1013.8
20260906054357 72 5 0.0 0.0 0.00 0.45 0.00 93 1013.8
20260906053958 72 343 0.0 0.0 0.00 0.45 0.00 93 1013.7
20260906053757 72 315 0.0 0.0 0.00 0.45 0.00 93 1013.7
20260906053656 72 343 0.0 0.0 0.00 0.45 0.00 93 1013.7
20260906053558 72 348 0.0 0.0 0.00 0.45 0.00 93 1013.7
20260906053457 72 355 0.0 0.0 0.00 0.45 0.00 93 1013.6
20260906053357 72 355 0.0 0.0 0.00 0.45 0.00 93 1013.7
20260906053259 72 355 0.0 0.0 0.00 0.45 0.00 93 1013.7
20260906053157 72 345 0.0 0.0 0.00 0.45 0.00 93 1013.7
20260906053057 72 5 0.0 0.0 0.00 0.45 0.00 93 1013.7
20260906052957 72 5 0.0 0.0 0.00 0.45 0.00 93 1013.7
20260906052857 72 336 0.0 0.0 0.00 0.45 0.00 93 1013.8
20260906052758 72 336 0.0 0.0 0.00 0.45 0.00 93 1013.8
20260906052659 72 336 0.0 0.0 0.00 0.45 0.00 93 1013.8
20260906052557 72 336 0.0 0.0 0.00 0.45 0.00 93 1013.8
20260906052458 72 336 0.0 0.0 0.00 0.45 0.00 93 1013.9
20260906052357 72 336 0.0 0.0 0.00 0.45 0.00 93 1013.8
20260906052258 72 336 0.0 0.0 0.00 0.45 0.00 93 1013.8
20260906052157 72 336 0.0 0.0 0.00 0.45 0.00 93 1013.8
20260906052058 72 336 0.0 0.0 0.00 0.45 0.00 93 1013.8
20260906051859 72 336 0.0 0.0 0.00 0.45 0.00 93 1013.9
20260906051757 72 336 0.0 0.0 0.00 0.45 0.00 93 1013.8
20260906051657 72 336 0.0 0.0 0.00 0.45 0.00 93 1013.8
20260906051558 72 336 0.0 0.0 0.00 0.45 0.00 93 1013.9
20260906051456 72 336 0.0 0.0 0.00 0.45 0.00 93 1013.9
20260906051358 72 336 0.0 0.0 0.00 0.45 0.00 93 1013.9
20260906051156 72 336 0.0 0.0 0.00 0.45 0.00 93 1013.8
20260906051057 72 336 0.0 0.0 0.00 0.45 0.00 93 1013.8
20260906050957 72 336 0.0 0.0 0.00 0.45 0.00 93 1013.9
20260906050857 72 336 0.0 0.0 0.00 0.45 0.00 93 1013.9
20260906050757 72 336 0.0 0.0 0.00 0.45 0.00 93 1013.8
20260906050657 72 336 0.0 0.0 0.00 0.45 0.00 93 1013.8
20260906050557 72 336 0.0 0.0 0.00 0.45 0.00 93 1013.7
20260906050457 72 5 0.0 0.0 0.00 0.45 0.00 93 1013.7
20260906050358 72 5 0.0 0.0 0.00 0.45 0.00 93 1013.7
20260906050258 72 5 0.0 0.0 0.00 0.45 0.00 93 1013.7
20260906050058 72 5 0.0 0.0 0.00 0.45 0.00 93 1013.6
20260906050000 72 360 0.0 0.0 0.00 0.45 0.00 93 1013.6
20260906045859 72 5 0.0 0.0 0.00 0.45 0.00 93 1013.5
20260906045758 72 5 0.0 1.0 0.00 0.45 0.00 93 1013.5
20260906045701 72 355 0.0 1.0 0.00 0.45 0.00 93 1013.5
20260906045558 72 355 0.0 2.0 0.00 0.45 0.00 93 1013.5
20260906045258 72 17 0.0 2.0 0.00 0.45 0.00 93 1013.4
20260906045158 72 27 0.0 2.0 0.00 0.45 0.00 93 1013.4
20260906044959 72 25 0.0 2.0 0.00 0.45 0.00 93 1013.5
20260906044859 72 25 0.0 2.0 0.00 0.45 0.00 93 1013.4
20260906044757 72 24 0.0 3.0 0.00 0.45 0.00 93 1013.3
20260906044659 72 5 1.0 3.0 0.00 0.45 0.00 93 1013.3
20260906044558 72 342 1.0 3.0 0.00 0.45 0.00 93 1013.3
20260906044459 72 334 2.0 3.0 0.00 0.45 0.00 93 1013.3
20260906044357 72 340 0.0 3.0 0.00 0.45 0.00 93 1013.3
20260906044300 72 355 1.0 3.0 0.00 0.45 0.00 93 1013.3
20260906044200 72 338 0.0 3.0 0.00 0.45 0.00 93 1013.2
20260906044058 72 338 1.0 3.0 0.00 0.45 0.00 93 1013.1
20260906043959 72 340 2.0 3.0 0.00 0.45 0.00 93 1013.1
20260906043859 72 355 2.0 3.0 0.00 0.45 0.00 93 1013.1
20260906043558 72 348 0.0 1.0 0.00 0.45 0.00 93 1013.1
20260906043459 72 355 0.0 0.0 0.00 0.45 0.00 93 1013.1
20260906043358 72 355 0.0 0.0 0.00 0.45 0.00 92 1013.1
20260906043258 72 355 0.0 0.0 0.00 0.45 0.00 92 1013.1
20260906043200 72 355 0.0 0.0 0.00 0.45 0.00 92 1013.1
20260906043100 72 355 0.0 0.0 0.00 0.45 0.00 92 1013.1
20260906042859 72 355 0.0 0.0 0.00 0.45 0.00 92 1013.1
20260906042759 72 355 0.0 0.0 0.00 0.45 0.00 92 1013.1
20260906042700 72 355 0.0 0.0 0.00 0.45 0.00 92 1013.1
20260906042600 72 355 0.0 0.0 0.00 0.45 0.00 92 1013.1
20260906042400 72 355 0.0 0.0 0.00 0.45 0.00 92 1013.1
20260906042259 72 355 0.0 0.0 0.00 0.45 0.00 92 1013.0
20260906042201 72 355 0.0 0.0 0.00 0.45 0.00 92 1013.0
20260906042100 72 355 0.0 0.0 0.00 0.45 0.00 92 1013.1
20260906041859 72 349 0.0 0.0 0.00 0.45 0.00 92 1013.1
20260906041759 72 349 0.0 0.0 0.00 0.45 0.00 92 1013.1
20260906041659 72 349 0.0 0.0 0.00 0.45 0.00 92 1013.1
20260906041559 72 349 0.0 0.0 0.00 0.45 0.00 92 1013.2
20260906041459 72 349 0.0 0.0 0.00 0.45 0.00 92 1013.2
20260906041300 72 349 0.0 0.0 0.00 0.45 0.00 92 1013.1
20260906041059 72 349 0.0 0.0 0.00 0.45 0.00 92 1013.2
20260906040959 72 349 0.0 0.0 0.00 0.45 0.00 92 1013.1
20260906040900 72 349 0.0 0.0 0.00 0.45 0.00 92 1013.1
20260906040759 72 349 0.0 0.0 0.00 0.45 0.00 92 1013.0
20260906040701 72 349 0.0 0.0 0.00 0.45 0.00 92 1013.0
20260906040559 72 349 0.0 0.0 0.00 0.45 0.00 92 1013.0
20260906040459 72 349 0.0 0.0 0.00 0.45 0.00 92 1013.0
20260906040301 72 349 0.0 0.0 0.00 0.45 0.00 92 1013.1
20260906040101 72 348 0.0 0.0 0.00 0.45 0.00 92 1013.0
20260906035959 72 349 0.0 0.0 0.00 0.45 0.45 92 1013.0
20260906035759 72 340 0.0 0.0 0.00 0.45 0.45 92 1013.0
20260906035703 72 355 0.0 0.0 0.00 0.45 0.45 92 1012.9
20260906035601 72 355 0.0 1.0 0.00 0.45 0.45 92 1013.0
20260906035501 72 355 0.0 1.0 0.00 0.45 0.45 92 1013.0
20260906035301 72 19 0.0 1.0 0.00 0.45 0.45 92 1013.1
20260906035159 72 21 0.0 1.0 0.00 0.45 0.45 92 1013.0
20260906035059 72 21 0.0 1.0 0.00 0.45 0.45 92 1013.0
20260906034958 72 21 0.0 1.0 0.00 0.45 0.45 92 1013.1
20260906034859 72 21 0.0 1.0 0.00 0.45 0.45 92 1013.1
20260906034759 72 21 0.0 1.0 0.00 0.45 0.45 92 1013.1
20260906034659 72 28 0.0 1.0 0.00 0.45 0.45 92 1013.0
20260906034559 72 28 0.0 1.0 0.00 0.45 0.45 92 1013.0
20260906034459 72 28 0.0 1.0 0.00 0.45 0.45 92 1013.0
20260906034359 72 28 0.0 1.0 0.00 0.45 0.45 92 1012.9
20260906034300 72 28 0.0 1.0 0.00 0.45 0.45 92 1013.0
20260906034159 72 28 0.0 1.0 0.00 0.45 0.45 92 1013.0
20260906034101 72 28 0.0 1.0 0.00 0.45 0.45 92 1013.0
20260906033859 72 28 0.0 1.0 0.00 0.45 0.45 92 1012.9
20260906033759 72 28 0.0 1.0 0.00 0.45 0.45 92 1012.9
20260906033559 72 28 0.0 1.0 0.00 0.45 0.45 92 1012.9
20260906033501 72 28 0.0 2.0 0.00 0.45 0.45 92 1012.9
20260906033359 72 28 0.0 2.0 0.00 0.45 0.45 92 1012.9
20260906033301 72 28 0.0 2.0 0.00 0.45 0.45 92 1012.8
20260906033159 72 28 0.0 2.0 0.00 0.45 0.45 92 1012.9
20260906033059 72 28 0.0 2.0 0.00 0.45 0.45 92 1012.9
20260906032959 72 28 0.0 2.0 0.00 0.45 0.45 92 1013.0
20260906032859 72 28 1.0 2.0 0.00 0.45 0.45 92 1012.9
20260906032759 72 28 0.0 2.0 0.00 0.45 0.45 92 1012.9
20260906032701 72 28 0.0 2.0 0.00 0.45 0.45 92 1013.0
20260906032559 72 28 0.0 2.0 0.00 0.45 0.45 92 1013.0
20260906032459 72 46 0.0 2.0 0.00 0.45 0.45 91 1013.0
20260906032359 72 46 0.0 2.0 0.00 0.45 0.45 92 1013.0
20260906032301 72 46 1.0 2.0 0.00 0.45 0.45 91 1013.0
20260906032059 72 31 1.0 2.0 0.00 0.45 0.45 91 1013.0
20260906031959 72 31 0.0 2.0 0.00 0.45 0.45 91 1013.0
20260906031859 72 31 0.0 3.0 0.00 0.45 0.45 91 1013.0
20260906031658 72 30 0.0 3.0 0.00 0.45 0.45 91 1013.0
20260906031601 72 30 0.0 3.0 0.00 0.45 0.45 91 1013.0
20260906031501 72 30 0.0 3.0 0.00 0.45 0.45 91 1013.0
20260906031359 72 30 1.0 3.0 0.00 0.45 0.45 91 1013.0
20260906031158 72 19 1.0 4.0 0.00 0.45 0.45 91 1012.9
20260906031101 72 19 2.0 4.0 0.00 0.45 0.45 91 1013.0
20260906030959 72 355 2.0 4.0 0.00 0.45 0.45 91 1013.0
20260906030902 72 11 1.0 4.0 0.00 0.45 0.45 91 1012.9
20260906030759 72 355 2.0 4.0 0.00 0.45 0.45 91 1012.8
20260906030659 72 5 1.0 4.0 0.00 0.45 0.45 91 1012.9
20260906030559 72 360 0.0 4.0 0.00 0.45 0.45 91 1012.9
20260906030359 72 360 0.0 4.0 0.00 0.45 0.45 91 1012.9
20260906030300 72 5 4.0 4.0 0.00 0.45 0.45 91 1012.9
20260906030202 72 346 0.0 3.0 0.00 0.45 0.45 91 1012.9
20260906030000 72 103 0.0 6.0 0.00 0.45 0.45 91 1012.9
20260906025901 72 29 0.0 6.0 0.00 0.45 0.45 91 1013.0
20260906025800 73 38 1.0 6.0 0.00 0.45 0.45 91 1013.0
20260906025659 73 49 0.0 6.0 0.00 0.45 0.45 91 1013.0
20260906025459 73 340 0.0 6.0 0.00 0.45 0.45 91 1012.8
20260906025359 73 5 2.0 6.0 0.00 0.45 0.45 91 1012.8
20260906025300 73 342 1.0 6.0 0.00 0.45 0.45 91 1012.8
20260906025059 73 49 2.0 6.0 0.00 0.45 0.45 92 1012.8
20260906024959 73 346 0.0 3.0 0.00 0.45 0.45 92 1012.8
20260906024759 73 355 0.0 3.0 0.00 0.45 0.45 92 1012.8
20260906024659 73 355 1.0 3.0 0.00 0.45 0.45 92 1012.8
20260906024459 73 325 1.0 3.0 0.00 0.45 0.45 92 1012.8
20260906024400 73 38 0.0 3.0 0.00 0.45 0.45 92 1012.7
20260906024259 73 36 2.0 3.0 0.00 0.45 0.45 92 1012.7
20260906024159 73 21 3.0 3.0 0.00 0.45 0.45 92 1012.7
20260906024059 73 360 2.0 2.0 0.00 0.45 0.45 92 1012.7
20260906023959 73 19 1.0 2.0 0.00 0.45 0.45 92 1012.8
20260906023859 73 19 1.0 2.0 0.00 0.45 0.45 92 1012.8
20260906023801 73 344 0.0 0.0 0.00 0.45 0.45 92 1012.8
20260906023658 73 335 0.0 0.0 0.00 0.45 0.45 92 1012.9
20260906023559 73 5 0.0 0.0 0.00 0.45 0.45 92 1012.8
20260906023459 73 33 0.0 0.0 0.00 0.45 0.45 92 1012.9
20260906023400 73 5 0.0 0.0 0.00 0.45 0.45 92 1012.9
20260906023300 73 31 0.0 0.0 0.00 0.45 0.45 92 1012.9
20260906023159 73 42 0.0 0.0 0.00 0.45 0.45 92 1012.9
20260906023058 73 13 0.0 0.0 0.00 0.45 0.45 92 1013.0
20260906022859 73 13 0.0 0.0 0.00 0.45 0.45 92 1013.0
20260906022758 73 13 0.0 0.0 0.00 0.45 0.45 92 1012.9
20260906022559 73 13 0.0 0.0 0.00 0.45 0.45 92 1013.0
20260906022500 73 13 0.0 2.0 0.00 0.45 0.45 92 1013.0
20260906022359 73 13 0.0 2.0 0.00 0.45 0.45 92 1013.0
20260906022259 73 9 0.0 2.0 0.00 0.45 0.45 92 1012.9
20260906022158 73 9 0.0 2.0 0.00 0.45 0.45 92 1013.0
20260906022059 73 9 0.0 2.0 0.00 0.45 0.45 92 1013.0
20260906022003 73 5 0.0 2.0 0.00 0.45 0.45 92 1013.0
20260906021759 73 14 0.0 3.0 0.00 0.45 0.45 92 1013.0
20260906021700 73 14 0.0 3.0 0.00 0.45 0.45 92 1013.0
20260906021559 73 328 0.0 3.0 0.00 0.45 0.45 92 1013.1
20260906021459 73 5 0.0 3.0 0.00 0.45 0.45 92 1013.0
20260906021359 73 5 0.0 3.0 0.00 0.45 0.45 91 1013.1
20260906021300 73 5 0.0 3.0 0.00 0.45 0.45 91 1013.1
20260906021159 73 5 0.0 3.0 0.00 0.45 0.45 91 1013.1
20260906021059 73 5 0.0 3.0 0.00 0.45 0.45 91 1013.1
20260906020959 73 5 2.0 3.0 0.00 0.45 0.45 91 1013.0
20260906020901 73 346 1.0 3.0 0.00 0.45 0.45 91 1013.0
20260906020759 74 346 2.0 3.0 0.00 0.45 0.45 91 1013.0
20260906020659 73 32 2.0 3.0 0.00 0.45 0.45 91 1013.0
20260906020559 74 355 1.0 1.0 0.00 0.45 0.45 91 1013.0
20260906020358 74 5 0.0 0.0 0.01 0.45 0.45 92 1012.9
20260906020259 74 5 0.0 0.0 0.01 0.45 0.45 92 1013.0
20260906020158 74 5 0.0 0.0 0.01 0.45 0.45 92 1013.0
20260906020100 74 5 0.0 0.0 0.01 0.45 0.45 92 1012.9
20260906020000 74 5 0.0 0.0 0.01 0.45 0.45 92 1012.9
20260906015800 74 22 0.0 0.0 0.01 0.45 0.45 92 1013.0
20260906015701 74 336 0.0 0.0 0.01 0.45 0.45 92 1013.0
20260906015359 74 5 0.0 0.0 0.02 0.45 0.45 92 1012.9
20260906015259 74 5 0.0 0.0 0.02 0.45 0.45 92 1013.0
20260906015159 74 5 0.0 0.0 0.02 0.45 0.45 91 1012.9
20260906015059 74 5 0.0 0.0 0.03 0.45 0.45 91 1012.9
20260906014959 74 5 0.0 0.0 0.03 0.45 0.45 91 1012.9
20260906014900 74 5 0.0 0.0 0.03 0.45 0.45 91 1012.9
20260906014559 74 10 0.0 0.0 0.03 0.45 0.45 91 1013.0
20260906014459 74 360 0.0 0.0 0.04 0.45 0.45 91 1013.0
20260906014359 74 355 0.0 0.0 0.04 0.45 0.45 91 1013.0
20260906014300 74 355 0.0 0.0 0.04 0.45 0.45 91 1013.0
20260906014159 74 71 0.0 0.0 0.04 0.45 0.45 91 1012.9
20260906014101 74 71 0.0 0.0 0.05 0.45 0.45 92 1012.9
20260906014000 74 111 0.0 0.0 0.05 0.45 0.45 91 1012.9
20260906013901 74 113 0.0 0.0 0.05 0.45 0.45 91 1013.0
20260906013758 74 180 0.0 0.0 0.05 0.45 0.45 91 1013.0
20260906013659 74 180 0.0 0.0 0.06 0.45 0.45 91 1013.0
20260906013600 74 180 0.0 0.0 0.06 0.45 0.45 91 1013.0
20260906013500 74 180 0.0 0.0 0.06 0.45 0.45 91 1013.0
20260906013258 74 180 0.0 0.0 0.07 0.45 0.45 91 1012.9
20260906013159 74 180 0.0 0.0 0.07 0.45 0.45 91 1013.0
20260906013103 74 180 0.0 0.0 0.07 0.45 0.45 91 1012.9
20260906013000 74 180 0.0 0.0 0.08 0.45 0.45 91 1012.9
20260906012759 74 180 0.0 0.0 0.08 0.45 0.45 91 1012.9
20260906012659 74 180 0.0 0.0 0.09 0.45 0.45 91 1012.9
20260906012559 74 180 0.0 0.0 0.09 0.45 0.45 90 1013.0
20260906012500 74 180 0.0 0.0 0.10 0.45 0.45 90 1013.1
20260906012359 74 180 0.0 0.0 0.10 0.45 0.45 90 1013.1
20260906012301 74 180 0.0 0.0 0.10 0.45 0.45 90 1013.1
20260906011958 74 180 0.0 0.0 0.12 0.45 0.45 90 1013.0
20260906011659 74 180 0.0 0.0 0.13 0.45 0.45 90 1012.9
20260906011559 74 180 0.0 0.0 0.14 0.45 0.45 90 1012.9
20260906011459 74 180 0.0 0.0 0.14 0.45 0.45 90 1012.8
20260906011401 74 180 0.0 0.0 0.15 0.45 0.45 90 1012.9
20260906011259 74 180 0.0 0.0 0.16 0.45 0.45 90 1012.9
20260906011159 74 180 0.0 0.0 0.16 0.45 0.45 90 1012.8
20260906011059 74 180 0.0 0.0 0.17 0.45 0.45 90 1012.7
20260906010959 74 180 0.0 0.0 0.17 0.45 0.45 90 1012.8
20260906010759 74 180 0.0 0.0 0.19 0.45 0.45 90 1012.7
20260906010700 74 180 0.0 0.0 0.20 0.45 0.45 90 1012.7
20260906010559 74 180 0.0 0.0 0.20 0.45 0.45 90 1012.8
20260906010459 74 180 0.0 0.0 0.20 0.44 0.44 90 1012.8
20260906010401 74 180 0.0 0.0 0.21 0.44 0.44 90 1012.7
20260906010300 74 180 0.0 0.0 0.22 0.44 0.44 90 1012.8
20260906010159 74 180 0.0 0.0 0.23 0.44 0.44 90 1012.7
20260906005959 74 184 0.0 0.0 0.25 0.44 0.44 90 1012.8
20260906005900 74 184 0.0 0.0 0.26 0.44 0.44 90 1012.8
20260906005759 74 153 0.0 0.0 0.27 0.44 0.44 90 1012.9
20260906005701 74 232 0.0 0.0 0.28 0.44 0.44 90 1012.8
20260906005600 74 232 0.0 0.0 0.28 0.43 0.43 90 1012.7
20260906005459 74 232 0.0 0.0 0.29 0.43 0.43 90 1012.6
20260906005400 74 232 0.0 0.0 0.29 0.43 0.43 90 1012.7
20260906005259 75 232 0.0 0.0 0.29 0.43 0.43 90 1012.7
20260906005158 75 238 0.0 0.0 0.29 0.43 0.43 90 1012.7
20260906005100 75 238 0.0 0.0 0.28 0.42 0.42 90 1012.6
20260906004858 75 237 0.0 0.0 0.28 0.42 0.42 90 1012.8
20260906004759 75 188 0.0 0.0 0.28 0.42 0.42 90 1013.0
20260906004659 75 188 0.0 0.0 0.28 0.42 0.42 90 1013.0
20260906004500 75 333 0.0 0.0 0.27 0.41 0.41 90 1013.0
20260906004259 75 345 0.0 0.0 0.27 0.41 0.41 90 1012.8
20260906004159 74 198 0.0 0.0 0.27 0.41 0.41 90 1012.9
20260906004058 75 198 0.0 0.0 0.26 0.40 0.40 89 1012.7
20260906003959 74 198 0.0 0.0 0.26 0.40 0.40 89 1012.7
20260906003859 75 198 0.0 0.0 0.26 0.40 0.40 89 1012.7
20260906003700 75 198 0.0 0.0 0.25 0.39 0.39 89 1012.7
20260906003559 75 360 0.0 0.0 0.25 0.39 0.39 89 1012.7
20260906003459 75 360 0.0 0.0 0.25 0.39 0.39 89 1012.6
20260906003405 75 360 0.0 3.0 0.25 0.39 0.39 88 1012.5
20260906003259 75 360 0.0 3.0 0.24 0.38 0.38 88 1012.4
20260906003200 75 360 0.0 3.0 0.24 0.38 0.38 88 1012.3
20260906003100 75 360 0.0 3.0 0.24 0.38 0.38 88 1012.3
20260906002859 75 360 0.0 3.0 0.23 0.37 0.37 88 1012.2
20260906002759 75 360 0.0 3.0 0.23 0.37 0.37 88 1012.2
20260906002700 75 360 0.0 3.0 0.22 0.36 0.36 88 1012.3
20260906002459 75 9 0.0 3.0 0.21 0.35 0.35 87 1012.2
20260906002358 75 5 1.0 3.0 0.21 0.35 0.35 87 1012.2
20260906002259 75 5 1.0 3.0 0.21 0.35 0.35 87 1012.2
20260906002159 75 355 0.0 1.0 0.20 0.34 0.34 87 1012.3
20260906002059 75 15 0.0 1.0 0.20 0.34 0.34 87 1012.3
20260906001959 75 9 0.0 1.0 0.19 0.33 0.33 87 1012.3
20260906001859 75 5 0.0 6.0 0.19 0.33 0.33 86 1012.3
20260906001659 75 117 0.0 6.0 0.18 0.32 0.32 86 1012.2
20260906001559 75 117 0.0 6.0 0.17 0.31 0.31 86 1012.1
20260906001459 75 117 0.0 6.0 0.17 0.31 0.31 85 1012.1
20260906001359 75 115 0.0 6.0 0.16 0.30 0.30 85 1012.0
20260906001300 75 63 0.0 6.0 0.15 0.29 0.29 85 1012.0
20260906001159 75 107 0.0 6.0 0.15 0.29 0.29 84 1012.0
20260906001059 75 113 0.0 8.0 0.14 0.28 0.28 84 1011.9
20260906001002 76 163 6.0 8.0 0.14 0.28 0.28 84 1012.0
20260906000859 76 156 1.0 8.0 0.13 0.27 0.27 84 1012.0
20260906000800 76 151 2.0 8.0 0.12 0.26 0.26 83 1012.0
20260906000658 76 156 0.0 8.0 0.11 0.25 0.25 82 1012.1
20260906000604 76 162 2.0 10.0 0.11 0.25 0.25 82 1012.0
20260906000500 77 317 0.0 14.0 0.10 0.24 0.24 81 1012.0
20260906000403 77 342 0.0 16.0 0.09 0.23 0.23 81 1011.9
20260906000259 77 145 2.0 16.0 0.08 0.22 0.22 81 1011.8
20260906000200 77 340 6.0 16.0 0.07 0.21 0.21 80 1011.9
20260906000000 78 304 1.0 16.0 0.05 0.19 0.19 80 1012.0
20260905235901 79 154 1.0 16.0 0.04 0.18 0.18 79 1012.2
20260905235801 79 326 3.0 16.0 0.03 0.17 0.17 78 1012.3
20260905235659 80 85 9.0 16.0 0.02 0.16 0.16 78 1012.4
20260905235558 81 350 6.0 16.0 0.01 0.15 0.15 77 1012.3
20260905235459 81 15 10.0 14.0 0.00 0.14 0.14 76 1012.2
20260905235359 82 5 8.0 14.0 0.00 0.14 0.14 75 1012.1
20260905235200 82 339 6.0 13.0 0.00 0.14 0.14 74 1012.0
20260905235100 82 54 3.0 12.0 0.00 0.14 0.14 74 1012.0
20260905234959 82 317 3.0 10.0 0.00 0.14 0.14 74 1012.0
20260905234800 82 53 6.0 9.0 0.00 0.14 0.14 73 1011.6
20260905234700 83 344 2.0 3.0 0.00 0.14 0.14 73 1011.6
20260905234559 83 5 2.0 3.0 0.00 0.14 0.14 73 1011.6
20260905234458 83 107 0.0 1.0 0.00 0.14 0.14 73 1011.4
20260905234402 83 67 0.0 1.0 0.00 0.14 0.14 73 1011.5
20260905234259 83 130 0.0 3.0 0.00 0.14 0.14 73 1011.7
20260905234200 83 148 0.0 3.0 0.00 0.14 0.14 73 1011.8
20260905234059 83 100 0.0 3.0 0.00 0.14 0.14 73 1011.8
20260905233959 83 130 0.0 3.0 0.00 0.14 0.14 73 1011.8
20260905233859 83 102 0.0 3.0 0.00 0.14 0.14 73 1011.8
20260905233759 83 152 0.0 3.0 0.00 0.14 0.14 73 1011.8
20260905233700 83 94 0.0 3.0 0.00 0.14 0.14 73 1011.7
20260905233601 83 151 0.0 3.0 0.00 0.14 0.14 72 1011.8
20260905233459 83 130 0.0 3.0 0.00 0.14 0.14 72 1011.8
20260905233359 83 155 2.0 5.0 0.00 0.14 0.14 72 1011.8
20260905233302 83 154 0.0 5.0 0.00 0.14 0.14 72 1011.8
20260905233158 84 80 0.0 5.0 0.00 0.14 0.14 72 1011.8
20260905233059 84 194 2.0 5.0 0.00 0.14 0.14 72 1012.0
20260905233001 84 128 0.0 5.0 0.00 0.14 0.14 72 1011.9
20260905232900 84 169 0.0 8.0 0.00 0.14 0.14 72 1012.0
20260905232801 84 172 0.0 8.0 0.00 0.14 0.14 72 1012.0
20260905232659 84 70 2.0 8.0 0.00 0.14 0.14 72 1012.0
20260905232559 84 36 1.0 8.0 0.00 0.14 0.14 72 1011.9
20260905232501 84 192 2.0 8.0 0.00 0.14 0.14 72 1011.9
20260905232359 84 136 0.0 8.0 0.00 0.14 0.14 72 1011.8
20260905232105 85 169 2.0 8.0 0.00 0.14 0.14 71 1011.7
20260905231706 86 158 0.0 7.0 0.00 0.14 0.14 71 1012.0
20260905231607 86 107 0.0 7.0 0.00 0.14 0.14 71 1012.1
20260905231509 86 154 0.0 7.0 0.00 0.14 0.14 71 1012.1
20260905231359 86 173 0.0 7.0 0.00 0.14 0.14 71 1012.3
20260905231300 86 148 0.0 7.0 0.00 0.14 0.14 70 1012.2
20260905231059 86 65 0.0 7.0 0.00 0.14 0.14 70 1012.1
20260905231009 86 93 0.0 7.0 0.00 0.14 0.14 70 1012.1
20260905230812 87 154 2.0 7.0 0.00 0.14 0.14 69 1011.9
20260905230600 87 230 2.0 7.0 0.00 0.14 0.14 68 1011.9
20260905230400 87 82 0.0 0.0 0.00 0.14 0.14 67 1011.8
20260905230300 87 202 0.0 0.0 0.00 0.14 0.14 66 1011.8
20260905230159 87 105 0.0 0.0 0.00 0.14 0.14 66 1011.7
20260905230059 87 105 0.0 0.0 0.00 0.14 0.14 66 1011.7
20260905230005 87 105 0.0 0.0 0.00 0.14 0.14 66 1011.6
20260905225900 87 105 0.0 0.0 0.00 0.14 0.14 66 1011.7
20260905225801 87 26 0.0 0.0 0.00 0.14 0.14 66 1011.6
20260905225701 87 349 0.0 0.0 0.00 0.14 0.14 66 1011.7
20260905225559 88 349 0.0 0.0 0.00 0.14 0.14 66 1011.6
20260905225504 88 349 0.0 0.0 0.00 0.14 0.14 65 1011.5
20260905225401 88 349 0.0 0.0 0.00 0.14 0.14 65 1011.4
20260905225305 88 349 0.0 0.0 0.00 0.14 0.14 65 1011.5
20260905225211 88 349 0.0 0.0 0.00 0.14 0.14 65 1011.5
20260905225105 88 21 0.0 0.0 0.00 0.14 0.14 65 1011.5
20260905224858 88 18 0.0 0.0 0.00 0.14 0.14 65 1011.5
20260905224759 88 18 0.0 0.0 0.00 0.14 0.14 66 1011.6
20260905224700 88 18 0.0 0.0 0.00 0.14 0.14 66 1011.5
20260905224559 88 18 0.0 0.0 0.00 0.14 0.14 66 1011.5
20260905224500 88 18 0.0 0.0 0.00 0.14 0.14 64 1011.6
20260905224259 88 18 0.0 0.0 0.00 0.14 0.14 66 1011.6
20260905224159 88 18 0.0 0.0 0.00 0.14 0.14 65 1011.7
20260905224059 88 18 0.0 0.0 0.00 0.14 0.14 65 1011.7
20260905223858 88 18 0.0 0.0 0.00 0.14 0.14 64 1011.7
20260905223759 88 18 0.0 0.0 0.00 0.14 0.14 64 1011.8
20260905223700 88 18 0.0 0.0 0.00 0.14 0.14 63 1011.8
20260905223601 88 355 0.0 0.0 0.00 0.14 0.14 64 1011.8
20260905223359 88 355 0.0 0.0 0.00 0.14 0.14 64 1011.7
20260905223300 88 355 0.0 0.0 0.00 0.14 0.14 63 1011.7
20260905223201 88 355 0.0 0.0 0.00 0.14 0.14 63 1011.6
20260905223001 88 13 0.0 0.0 0.00 0.14 0.14 63 1011.6
20260905222900 88 355 0.0 0.0 0.00 0.14 0.14 63 1011.6
20260905222800 89 348 0.0 0.0 0.00 0.14 0.14 64 1011.6
20260905222702 89 348 0.0 0.0 0.00 0.14 0.14 64 1011.6
20260905222600 89 348 0.0 0.0 0.00 0.14 0.14 64 1011.6
20260905222500 89 348 0.0 1.0 0.00 0.14 0.14 63 1011.7
20260905222401 89 348 0.0 1.0 0.00 0.14 0.14 63 1011.7
20260905222200 89 348 0.0 1.0 0.00 0.14 0.14 63 1011.7
20260905222100 89 355 0.0 4.0 0.00 0.14 0.14 63 1011.8
20260905222001 89 349 0.0 4.0 0.00 0.14 0.14 63 1011.8
20260905221900 89 348 0.0 4.0 0.00 0.14 0.14 62 1011.7
20260905221800 89 349 0.0 4.0 0.00 0.14 0.14 62 1011.7
20260905221701 89 348 0.0 4.0 0.00 0.14 0.14 62 1011.7
20260905221501 89 332 0.0 4.0 0.00 0.14 0.14 62 1011.7
20260905221400 89 332 0.0 4.0 0.00 0.14 0.14 63 1011.8
20260905221059 90 338 2.0 4.0 0.00 0.14 0.14 62 1011.7
20260905221002 90 360 0.0 4.0 0.00 0.14 0.14 62 1011.7
20260905220900 90 344 1.0 4.0 0.00 0.14 0.14 61 1011.7
20260905220800 90 344 0.0 4.0 0.00 0.14 0.14 62 1011.6
20260905220700 90 344 0.0 4.0 0.00 0.14 0.14 62 1011.7
20260905220600 90 344 0.0 4.0 0.00 0.14 0.14 61 1011.7
20260905220501 90 344 0.0 4.0 0.00 0.14 0.14 61 1011.7
20260905220400 90 344 1.0 4.0 0.00 0.14 0.14 61 1011.6
20260905220300 90 11 2.0 4.0 0.00 0.14 0.14 60 1011.6
20260905220200 90 14 1.0 4.0 0.00 0.14 0.14 60 1011.6
20260905215900 91 345 0.0 3.0 0.00 0.42 0.14 61 1011.4
20260905215800 91 345 1.0 3.0 0.00 0.42 0.14 61 1011.4
20260905215700 91 345 1.0 3.0 0.00 0.42 0.14 60 1011.4
20260905215559 91 342 0.0 3.0 0.00 0.42 0.14 60 1011.4
20260905215401 91 346 2.0 3.0 0.00 0.42 0.14 60 1011.4
20260905215259 91 326 2.0 2.0 0.00 0.42 0.14 60 1011.3
20260905215201 91 74 0.0 2.0 0.00 0.42 0.14 61 1011.3
20260905215059 91 346 0.0 2.0 0.00 0.42 0.14 60 1011.4
20260905214959 91 340 0.0 2.0 0.00 0.42 0.14 60 1011.4
20260905214859 91 333 1.0 2.0 0.00 0.42 0.14 60 1011.3
20260905214759 91 17 0.0 2.0 0.00 0.42 0.14 59 1011.3
20260905214559 92 360 0.0 3.0 0.00 0.42 0.14 59 1011.3
20260905214359 92 355 0.0 3.0 0.00 0.42 0.14 60 1011.3
20260905214259 92 339 1.0 3.0 0.00 0.42 0.14 59 1011.3
20260905214159 92 339 2.0 3.0 0.00 0.42 0.14 61 1011.3
20260905214103 92 342 1.0 3.0 0.00 0.42 0.14 60 1011.4
20260905213859 92 344 1.0 3.0 0.00 0.42 0.14 60 1011.3
20260905213759 92 348 3.0 3.0 0.00 0.42 0.14 59 1011.3
20260905213659 92 5 3.0 3.0 0.00 0.42 0.14 59 1011.3
20260905213600 92 335 3.0 3.0 0.00 0.42 0.14 60 1011.3
20260905213500 92 336 0.0 3.0 0.00 0.42 0.14 60 1011.2
20260905213359 92 348 0.0 4.0 0.00 0.42 0.14 60 1011.3
20260905213259 92 344 0.0 9.0 0.00 0.42 0.14 61 1011.3
20260905213159 92 24 0.0 9.0 0.00 0.42 0.14 59 1011.3
20260905213100 92 338 1.0 9.0 0.00 0.42 0.14 59 1011.3
20260905213001 91 61 1.0 9.0 0.00 0.42 0.14 60 1011.3
20260905212901 91 304 0.0 9.0 0.00 0.42 0.14 60 1011.3
20260905212759 91 44 0.0 9.0 0.00 0.42 0.14 60 1011.4
20260905212701 91 355 2.0 9.0 0.00 0.42 0.14 60 1011.4
20260905212600 91 284 1.0 9.0 0.00 0.42 0.14 60 1011.3
20260905212459 91 331 4.0 9.0 0.00 0.42 0.14 61 1011.3
20260905212359 91 46 5.0 6.0 0.00 0.42 0.14 60 1011.4
20260905212300 91 5 1.0 6.0 0.00 0.42 0.14 62 1011.4
20260905212159 91 349 1.0 6.0 0.00 0.42 0.14 62 1011.4
20260905212001 90 343 0.0 6.0 0.00 0.42 0.14 61 1011.4
20260905211800 90 14 4.0 6.0 0.00 0.42 0.14 61 1011.4
20260905211700 90 11 4.0 6.0 0.00 0.42 0.14 62 1011.5
20260905211559 90 317 0.0 4.0 0.00 0.42 0.14 63 1011.5
20260905211500 90 321 0.0 4.0 0.00 0.42 0.14 62 1011.5
20260905211359 90 321 0.0 4.0 0.00 0.42 0.14 62 1011.5
20260905211259 90 308 1.0 4.0 0.00 0.42 0.14 62 1011.5
20260905211159 90 19 2.0 4.0 0.00 0.42 0.14 61 1011.5
20260905211100 90 21 1.0 4.0 0.00 0.42 0.14 64 1011.5
20260905210959 90 355 2.0 4.0 0.00 0.42 0.14 63 1011.5
20260905210901 89 52 1.0 3.0 0.00 0.42 0.14 62 1011.5
20260905210600 89 345 0.0 3.0 0.00 0.42 0.14 63 1011.6
20260905210501 89 345 0.0 3.0 0.00 0.42 0.14 62 1011.6
20260905210401 89 344 0.0 3.0 0.00 0.42 0.14 62 1011.6
20260905210300 89 343 0.0 3.0 0.00 0.42 0.14 62 1011.6
20260905210159 89 346 0.0 4.0 0.00 0.42 0.14 63 1011.6
20260905210001 89 23 1.0 6.0 0.00 0.42 0.14 62 1011.7
20260905205901 89 18 0.0 6.0 0.00 0.42 0.14 62 1011.6
20260905205800 90 360 0.0 6.0 0.00 0.42 0.14 63 1011.7
20260905205659 90 337 0.0 6.0 0.00 0.42 0.14 62 1011.7
20260905205600 90 26 0.0 6.0 0.00 0.42 0.14 61 1011.7
20260905205459 90 360 0.0 6.0 0.00 0.42 0.14 61 1011.7
20260905205400 90 342 1.0 6.0 0.00 0.42 0.14 60 1011.7
20260905205259 90 78 3.0 6.0 0.00 0.42 0.14 61 1011.7
20260905205159 90 19 1.0 6.0 0.00 0.42 0.14 60 1011.7
20260905205059 91 11 3.0 6.0 0.00 0.42 0.14 60 1011.7
20260905204800 92 343 2.0 6.0 0.00 0.42 0.14 59 1011.7
20260905204659 92 11 1.0 6.0 0.00 0.42 0.14 58 1011.8
20260905204559 92 74 0.0 6.0 0.00 0.42 0.14 58 1011.8
20260905204501 92 51 3.0 9.0 0.00 0.42 0.14 58 1011.8
20260905204359 93 348 4.0 9.0 0.00 0.42 0.14 57 1011.8
20260905204300 93 32 5.0 9.0 0.00 0.42 0.14 57 1011.8
20260905204159 93 11 1.0 9.0 0.00 0.42 0.14 57 1011.8
20260905204059 93 37 1.0 9.0 0.00 0.42 0.14 57 1011.9
20260905204000 94 36 0.0 9.0 0.00 0.42 0.14 56 1011.8
20260905203859 94 343 2.0 9.0 0.00 0.42 0.14 57 1011.9
20260905203800 94 345 2.0 9.0 0.00 0.42 0.14 59 1011.8
20260905203700 94 342 0.0 9.0 0.00 0.42 0.14 58 1011.8
20260905203601 94 18 4.0 5.0 0.00 0.42 0.14 56 1011.8
20260905203459 94 342 1.0 5.0 0.00 0.42 0.14 56 1011.9
20260905203400 94 331 0.0 5.0 0.00 0.42 0.14 54 1011.8
20260905203300 94 338 2.0 5.0 0.00 0.42 0.14 55 1011.8
20260905203100 94 21 1.0 3.0 0.00 0.42 0.14 57 1011.8
20260905203001 94 5 0.0 3.0 0.00 0.42 0.14 55 1011.8
20260905202701 94 336 0.0 3.0 0.00 0.42 0.14 55 1011.8
20260905202600 94 130 0.0 3.0 0.00 0.42 0.14 57 1011.8
20260905202500 93 333 0.0 3.0 0.00 0.42 0.14 56 1011.9
20260905202400 93 355 0.0 3.0 0.00 0.42 0.14 57 1011.9
20260905202300 93 355 0.0 3.0 0.00 0.42 0.14 56 1011.9
20260905202159 93 355 0.0 3.0 0.00 0.42 0.14 55 1011.9
20260905202100 93 140 0.0 3.0 0.00 0.42 0.14 55 1012.0
20260905202000 93 144 0.0 3.0 0.00 0.42 0.14 55 1011.9
20260905201900 93 173 2.0 3.0 0.00 0.42 0.14 56 1011.9
20260905201759 93 355 1.0 2.0 0.00 0.42 0.14 56 1011.9
20260905201659 93 300 1.0 3.0 0.00 0.42 0.14 57 1011.9
20260905201559 93 360 0.0 3.0 0.00 0.42 0.14 56 1011.9
20260905201459 93 189 0.0 3.0 0.00 0.42 0.14 56 1011.9
20260905201400 93 338 0.0 3.0 0.00 0.42 0.14 56 1012.0
20260905201300 93 340 0.0 3.0 0.00 0.42 0.14 55 1011.9
20260905201059 93 180 0.0 3.0 0.00 0.42 0.14 53 1012.0
20260905200859 93 144 1.0 4.0 0.00 0.42 0.14 55 1012.1
20260905200800 93 190 1.0 4.0 0.00 0.42 0.14 56 1012.1
20260905200659 93 224 2.0 4.0 0.00 0.42 0.14 57 1012.1
20260905200459 93 355 1.0 6.0 0.00 0.42 0.14 56 1012.0
20260905200400 93 355 1.0 6.0 0.00 0.42 0.14 56 1012.0
20260905200300 93 13 0.0 6.0 0.00 0.42 0.14 56 1012.1
20260905200159 93 14 0.0 6.0 0.00 0.42 0.14 55 1012.1
20260905200059 93 343 3.0 6.0 0.00 0.42 0.14 57 1012.2
20260905200002 93 327 1.0 6.0 0.00 0.42 0.14 56 1012.2
20260905195859 93 332 4.0 6.0 0.00 0.42 0.14 54 1012.2
20260905195800 93 360 2.0 7.0 0.00 0.42 0.14 54 1012.1
20260905195701 93 192 0.0 7.0 0.00 0.42 0.14 53 1012.1
20260905195600 93 196 2.0 3.0 0.00 0.42 0.14 54 1012.1
20260905195459 93 175 2.0 3.0 0.00 0.42 0.14 53 1012.1
20260905195359 93 148 1.0 2.0 0.00 0.42 0.14 56 1012.1
20260905195200 93 199 0.0 3.0 0.00 0.42 0.14 54 1012.2
20260905195100 93 163 0.0 3.0 0.00 0.42 0.14 54 1012.2
20260905195002 93 5 1.0 3.0 0.00 0.42 0.14 55 1012.2
20260905194858 93 188 1.0 6.0 0.00 0.42 0.14 55 1012.3
20260905194800 93 234 0.0 6.0 0.00 0.42 0.14 55 1012.2
20260905194659 93 11 0.0 6.0 0.00 0.42 0.14 57 1012.3
20260905194559 93 62 0.0 6.0 0.00 0.42 0.14 55 1012.3
20260905194459 93 18 1.0 6.0 0.00 0.42 0.14 55 1012.3
20260905194359 93 273 0.0 6.0 0.00 0.42 0.14 55 1012.3
20260905194301 93 238 1.0 6.0 0.00 0.42 0.14 55 1012.3
20260905194158 93 343 2.0 6.0 0.00 0.42 0.14 53 1012.3
20260905194100 93 173 2.0 6.0 0.00 0.42 0.14 51 1012.4
20260905194000 93 127 3.0 6.0 0.00 0.42 0.14 52 1012.4
20260905193859 93 175 2.0 6.0 0.00 0.42 0.14 54 1012.3
20260905193800 93 133 0.0 6.0 0.00 0.42 0.14 55 1012.4
20260905193700 93 181 1.0 6.0 0.00 0.42 0.14 55 1012.3
20260905193559 93 209 0.0 6.0 0.00 0.42 0.14 53 1012.3
20260905193502 93 26 0.0 6.0 0.00 0.42 0.14 55 1012.3
20260905193400 93 284 0.0 6.0 0.00 0.42 0.14 53 1012.4
20260905193300 93 224 0.0 6.0 0.00 0.42 0.14 54 1012.4
20260905193159 93 342 0.0 6.0 0.00 0.42 0.14 55 1012.4
20260905193059 93 101 0.0 6.0 0.00 0.42 0.14 54 1012.4
20260905193001 93 15 0.0 6.0 0.00 0.42 0.14 54 1012.4
20260905192859 93 15 0.0 6.0 0.00 0.42 0.14 56 1012.4
20260905192759 92 17 0.0 6.0 0.00 0.42 0.14 55 1012.5
20260905192701 92 15 1.0 6.0 0.00 0.42 0.14 53 1012.5
20260905192459 93 42 3.0 7.0 0.00 0.42 0.14 54 1012.6
20260905192400 93 179 1.0 7.0 0.00 0.42 0.14 53 1012.6
20260905192300 93 180 2.0 7.0 0.00 0.42 0.14 54 1012.6
20260905192203 93 248 2.0 7.0 0.00 0.42 0.14 56 1012.5
20260905192101 93 167 0.0 7.0 0.00 0.42 0.14 56 1012.6
20260905191959 93 98 1.0 7.0 0.00 0.42 0.14 53 1012.6
20260905191900 92 170 6.0 7.0 0.00 0.42 0.14 55 1012.6
20260905191802 92 132 3.0 4.0 0.00 0.42 0.14 55 1012.6
20260905191659 92 241 0.0 3.0 0.00 0.42 0.14 54 1012.7
20260905191600 92 213 1.0 3.0 0.00 0.42 0.14 54 1012.7
20260905191459 92 130 0.0 3.0 0.00 0.42 0.14 55 1012.7
20260905191400 92 323 1.0 3.0 0.00 0.42 0.14 55 1012.7
20260905191259 92 296 0.0 3.0 0.00 0.42 0.14 55 1012.7
20260905191159 92 338 0.0 3.0 0.00 0.42 0.14 55 1012.8
20260905191059 92 350 0.0 3.0 0.00 0.42 0.14 54 1012.7
20260905190859 92 247 0.0 3.0 0.00 0.42 0.14 53 1012.8
20260905190659 92 180 1.0 3.0 0.00 0.42 0.14 53 1012.8
20260905190600 92 290 0.0 3.0 0.00 0.42 0.14 54 1012.8
20260905190500 92 329 0.0 3.0 0.00 0.42 0.14 53 1012.8
20260905190401 92 317 0.0 3.0 0.00 0.42 0.14 54 1012.8
20260905190159 92 321 0.0 3.0 0.00 0.42 0.14 54 1013.0
20260905190059 92 178 1.0 2.0 0.00 0.42 0.14 53 1013.1
20260905190001 92 118 0.0 6.0 0.00 0.42 0.14 56 1013.0
20260905185859 92 186 0.0 6.0 0.00 0.42 0.14 55 1013.1
20260905185800 92 46 0.0 6.0 0.00 0.42 0.14 54 1013.2
20260905185559 92 184 0.0 6.0 0.00 0.42 0.14 56 1013.1
20260905185459 92 179 1.0 6.0 0.00 0.42 0.14 55 1013.1
20260905185400 92 223 1.0 6.0 0.00 0.42 0.14 55 1013.2
20260905185200 92 177 0.0 6.0 0.00 0.42 0.14 55 1013.3
20260905185058 92 5 0.0 4.0 0.00 0.42 0.14 56 1013.3
20260905184959 92 224 0.0 4.0 0.00 0.42 0.14 56 1013.3
20260905184859 92 26 0.0 4.0 0.00 0.42 0.14 57 1013.3
20260905184802 91 323 0.0 4.0 0.00 0.42 0.14 59 1013.3
20260905184659 91 329 0.0 4.0 0.00 0.42 0.14 57 1013.3
20260905184559 91 246 0.0 4.0 0.00 0.42 0.14 55 1013.3
20260905184459 91 246 0.0 4.0 0.00 0.42 0.14 54 1013.2
20260905184259 91 259 3.0 4.0 0.00 0.42 0.14 54 1013.3
20260905184200 91 206 0.0 4.0 0.00 0.42 0.14 54 1013.3
20260905184101 91 259 1.0 4.0 0.00 0.42 0.14 56 1013.3
20260905183959 91 277 1.0 4.0 0.00 0.42 0.14 55 1013.3
20260905183900 91 72 3.0 4.0 0.00 0.42 0.14 55 1013.4
20260905183759 91 93 0.0 4.0 0.00 0.42 0.14 55 1013.4
20260905183700 91 304 0.0 5.0 0.00 0.42 0.14 54 1013.3
20260905183559 91 186 0.0 5.0 0.00 0.42 0.14 55 1013.3
20260905183359 91 232 0.0 5.0 0.00 0.42 0.14 55 1013.4
20260905183302 91 196 0.0 5.0 0.00 0.42 0.14 55 1013.4
20260905183201 91 355 2.0 5.0 0.00 0.42 0.14 54 1013.4